Time,TemperatureF,DewpointF,PressureIn,WindDirection,WindDirectionDegrees,WindSpeedMPH,WindSpeedGustMPH,Humidity,HourlyPrecipIn,Conditions,Clouds,dailyrainin,SoftwareType,DateUTC
2013-09-21 00:01:00,54.6,52.0,29.84,WSW,253,1.0,4.0,91,0.00,,,0.00,Wunderground v.1.15,2013-09-21 05:01:00,
2013-09-21 00:02:00,54.6,52.0,29.84,WSW,254,1.0,4.0,91,0.00,,,0.00,Wunderground v.1.15,2013-09-21 05:02:00,
2013-09-21 00:03:00,54.5,51.9,29.84,WSW,254,1.0,4.0,91,0.00,,,0.00,Wunderground v.1.15,2013-09-21 05:03:00,
2013-09-21 00:06:00,54.5,51.9,29.84,WSW,253,0.0,4.0,91,0.00,,,0.00,Wunderground v.1.15,2013-09-21 05:06:00,
2013-09-21 00:07:00,54.5,51.9,29.84,WSW,254,0.0,4.0,91,0.00,,,0.00,Wunderground v.1.15,2013-09-21 05:07:00,
2013-09-21 00:08:00,54.5,51.9,29.84,WSW,253,0.0,4.0,91,0.00,,,0.00,Wunderground v.1.15,2013-09-21 05:08:00,
2013-09-21 00:11:00,54.4,51.8,29.84,WSW,253,0.0,0.0,91,0.00,,,0.00,Wunderground v.1.15,2013-09-21 05:11:00,
2013-09-21 00:12:00,54.4,51.8,29.84,WSW,253,0.0,0.0,91,0.00,,,0.00,Wunderground v.1.15,2013-09-21 05:12:00,
2013-09-21 00:14:00,54.4,51.5,29.84,WSW,253,0.0,0.0,90,0.00,,,0.00,Wunderground v.1.15,2013-09-21 05:14:00,
2013-09-21 00:15:00,54.4,51.5,29.84,WSW,256,0.0,1.0,90,0.00,,,0.00,Wunderground v.1.15,2013-09-21 05:15:00,
2013-09-21 00:17:00,54.3,51.4,29.84,WSW,256,0.0,1.0,90,0.00,,,0.00,Wunderground v.1.15,2013-09-21 05:17:00,
2013-09-21 00:18:00,54.3,51.4,29.84,WSW,256,0.0,1.0,90,0.00,,,0.00,Wunderground v.1.15,2013-09-21 05:18:00,
2013-09-21 00:20:00,54.2,51.3,29.84,WSW,256,0.0,2.0,90,0.00,,,0.00,Wunderground v.1.15,2013-09-21 05:20:00,
2013-09-21 00:23:00,54.2,51.3,29.84,WSW,256,0.0,2.0,90,0.00,,,0.00,Wunderground v.1.15,2013-09-21 05:23:00,
2013-09-21 00:26:00,54.1,51.5,29.84,WSW,257,0.0,2.0,91,0.00,,,0.00,Wunderground v.1.15,2013-09-21 05:26:00,
2013-09-21 00:28:00,54.1,51.5,29.84,WSW,257,0.0,2.0,91,0.00,,,0.00,Wunderground v.1.15,2013-09-21 05:28:00,
2013-09-21 00:32:00,54.0,51.4,29.84,WSW,257,0.0,1.0,91,0.00,,,0.00,Wunderground v.1.15,2013-09-21 05:32:00,
2013-09-21 00:35:00,54.0,51.4,29.84,WSW,258,1.0,1.0,91,0.00,,,0.00,Wunderground v.1.15,2013-09-21 05:35:00,
2013-09-21 00:36:00,54.0,51.4,29.84,WSW,258,1.0,1.0,91,0.00,,,0.00,Wunderground v.1.15,2013-09-21 05:36:00,
2013-09-21 00:37:00,54.0,51.4,29.84,WSW,258,1.0,1.0,91,0.00,,,0.00,Wunderground v.1.15,2013-09-21 05:37:00,
2013-09-21 00:39:00,54.0,51.4,29.84,West,259,1.0,1.0,91,0.00,,,0.00,Wunderground v.1.15,2013-09-21 05:39:00,
2013-09-21 00:41:00,53.9,51.3,29.84,West,259,1.0,1.0,91,0.00,,,0.00,Wunderground v.1.15,2013-09-21 05:41:00,
2013-09-21 00:42:00,53.9,51.3,29.84,West,259,1.0,1.0,91,0.00,,,0.00,Wunderground v.1.15,2013-09-21 05:42:00,
2013-09-21 00:43:00,53.9,51.3,29.84,West,259,1.0,1.0,91,0.00,,,0.00,Wunderground v.1.15,2013-09-21 05:43:00,
2013-09-21 00:48:00,53.9,51.3,29.84,West,277,0.0,5.0,91,0.00,,,0.00,Wunderground v.1.15,2013-09-21 05:48:00,
2013-09-21 00:49:00,53.9,51.3,29.84,West,277,0.0,5.0,91,0.00,,,0.00,Wunderground v.1.15,2013-09-21 05:49:00,
2013-09-21 00:51:00,53.8,51.2,29.84,West,278,1.0,4.0,91,0.00,,,0.00,Wunderground v.1.15,2013-09-21 05:51:00,
2013-09-21 00:55:00,53.8,51.2,29.84,WNW,297,2.0,4.0,91,0.00,,,0.00,Wunderground v.1.15,2013-09-21 05:55:00,
2013-09-21 00:57:00,53.8,51.2,29.84,WNW,296,2.0,4.0,91,0.00,,,0.00,Wunderground v.1.15,2013-09-21 05:57:00,
2013-09-21 00:58:00,53.8,51.2,29.84,WNW,297,2.0,4.0,91,0.00,,,0.00,Wunderground v.1.15,2013-09-21 05:58:00,
2013-09-21 01:00:00,53.8,51.2,29.84,WNW,296,2.0,2.0,91,0.00,,,0.00,Wunderground v.1.15,2013-09-21 06:00:00,
2013-09-21 01:02:00,53.8,51.2,29.84,WNW,296,2.0,2.0,91,0.00,,,0.00,Wunderground v.1.15,2013-09-21 06:02:00,
2013-09-21 01:03:00,53.7,51.1,29.84,WNW,298,1.0,2.0,91,0.00,,,0.00,Wunderground v.1.15,2013-09-21 06:03:00,
2013-09-21 01:06:00,53.7,51.1,29.84,WNW,299,1.0,3.0,91,0.00,,,0.00,Wunderground v.1.15,2013-09-21 06:06:00,
2013-09-21 01:07:00,53.7,51.1,29.84,WNW,299,1.0,3.0,91,0.00,,,0.00,Wunderground v.1.15,2013-09-21 06:07:00,
2013-09-21 01:09:00,53.7,51.1,29.84,NW,317,1.0,4.0,91,0.00,,,0.00,Wunderground v.1.15,2013-09-21 06:09:00,
2013-09-21 01:10:00,53.7,51.1,29.84,NW,317,2.0,2.0,91,0.00,,,0.00,Wunderground v.1.15,2013-09-21 06:10:00,
2013-09-21 01:11:00,53.7,51.1,29.84,NW,317,1.0,2.0,91,0.00,,,0.00,Wunderground v.1.15,2013-09-21 06:11:00,
2013-09-21 01:12:00,53.7,51.1,29.84,NW,317,1.0,2.0,91,0.00,,,0.00,Wunderground v.1.15,2013-09-21 06:12:00,
2013-09-21 01:16:00,53.7,50.8,29.84,NW,317,1.0,3.0,90,0.00,,,0.00,Wunderground v.1.15,2013-09-21 06:16:00,
2013-09-21 01:18:00,53.6,50.7,29.84,NNW,341,2.0,3.0,90,0.00,,,0.00,Wunderground v.1.15,2013-09-21 06:18:00,
2013-09-21 01:19:00,53.6,50.7,29.84,NNW,342,2.0,3.0,90,0.00,,,0.00,Wunderground v.1.15,2013-09-21 06:19:00,
2013-09-21 01:21:00,53.6,50.7,29.84,NNW,332,2.0,4.0,90,0.00,,,0.00,Wunderground v.1.15,2013-09-21 06:21:00,
2013-09-21 01:24:00,53.6,50.7,29.84,NW,325,2.0,4.0,90,0.00,,,0.00,Wunderground v.1.15,2013-09-21 06:24:00,
2013-09-21 01:25:00,53.6,50.7,29.84,NW,326,2.0,4.0,90,0.00,,,0.00,Wunderground v.1.15,2013-09-21 06:25:00,
2013-09-21 01:29:00,53.5,50.6,29.84,NW,319,2.0,4.0,90,0.00,,,0.00,Wunderground v.1.15,2013-09-21 06:29:00,
2013-09-21 01:31:00,53.5,50.6,29.84,NW,319,2.0,2.0,90,0.00,,,0.00,Wunderground v.1.15,2013-09-21 06:31:00,
2013-09-21 01:32:00,53.5,50.6,29.84,NW,319,1.0,2.0,90,0.00,,,0.00,Wunderground v.1.15,2013-09-21 06:32:00,
2013-09-21 01:34:00,53.4,50.5,29.84,NW,319,1.0,2.0,90,0.00,,,0.00,Wunderground v.1.15,2013-09-21 06:34:00,
2013-09-21 01:37:00,53.4,50.5,29.84,NW,315,1.0,2.0,90,0.00,,,0.00,Wunderground v.1.15,2013-09-21 06:37:00,
2013-09-21 01:38:00,53.3,50.4,29.84,NW,313,1.0,2.0,90,0.00,,,0.00,Wunderground v.1.15,2013-09-21 06:38:00,
2013-09-21 01:39:00,53.3,50.4,29.84,NW,313,1.0,2.0,90,0.00,,,0.00,Wunderground v.1.15,2013-09-21 06:39:00,
2013-09-21 01:43:00,53.3,50.7,29.84,NW,316,1.0,1.0,91,0.00,,,0.00,Wunderground v.1.15,2013-09-21 06:43:00,
2013-09-21 01:45:00,53.2,50.6,29.84,NW,316,1.0,1.0,91,0.00,,,0.00,Wunderground v.1.15,2013-09-21 06:45:00,
2013-09-21 01:46:00,53.2,50.6,29.84,NW,316,1.0,1.0,91,0.00,,,0.00,Wunderground v.1.15,2013-09-21 06:46:00,
2013-09-21 01:49:00,53.2,50.6,29.84,NW,316,1.0,2.0,91,0.00,,,0.00,Wunderground v.1.15,2013-09-21 06:49:00,
2013-09-21 01:50:00,53.1,50.5,29.84,NW,316,1.0,1.0,91,0.00,,,0.00,Wunderground v.1.15,2013-09-21 06:50:00,
2013-09-21 01:51:00,53.1,50.5,29.84,NW,316,1.0,3.0,91,0.00,,,0.00,Wunderground v.1.15,2013-09-21 06:51:00,
2013-09-21 01:54:00,53.0,50.4,29.84,NW,316,1.0,3.0,91,0.00,,,0.00,Wunderground v.1.15,2013-09-21 06:54:00,
2013-09-21 01:55:00,53.0,50.4,29.84,NW,315,1.0,3.0,91,0.00,,,0.00,Wunderground v.1.15,2013-09-21 06:55:00,
2013-09-21 01:56:00,52.9,50.0,29.84,NW,315,1.0,3.0,90,0.00,,,0.00,Wunderground v.1.15,2013-09-21 06:56:00,
2013-09-21 01:59:00,52.9,50.0,29.83,NW,313,1.0,3.0,90,0.00,,,0.00,Wunderground v.1.15,2013-09-21 06:59:00,
2013-09-21 02:01:00,52.8,50.2,29.84,NW,313,1.0,1.0,91,0.00,,,0.00,Wunderground v.1.15,2013-09-21 07:01:00,
2013-09-21 02:03:00,52.8,50.2,29.84,NW,313,1.0,2.0,91,0.00,,,0.00,Wunderground v.1.15,2013-09-21 07:03:00,
2013-09-21 02:04:00,52.8,50.2,29.84,NW,313,1.0,2.0,91,0.00,,,0.00,Wunderground v.1.15,2013-09-21 07:04:00,
2013-09-21 02:06:00,52.7,50.1,29.84,NW,313,1.0,2.0,91,0.00,,,0.00,Wunderground v.1.15,2013-09-21 07:06:00,
2013-09-21 02:10:00,52.6,50.0,29.84,NW,313,1.0,1.0,91,0.00,,,0.00,Wunderground v.1.15,2013-09-21 07:10:00,
2013-09-21 02:11:00,52.6,50.0,29.84,NW,313,1.0,1.0,91,0.00,,,0.00,Wunderground v.1.15,2013-09-21 07:11:00,
2013-09-21 02:13:00,52.6,50.0,29.84,NW,313,1.0,2.0,91,0.00,,,0.00,Wunderground v.1.15,2013-09-21 07:13:00,
2013-09-21 02:17:00,52.4,49.8,29.84,NW,313,1.0,3.0,91,0.00,,,0.00,Wunderground v.1.15,2013-09-21 07:17:00,
2013-09-21 02:18:00,52.4,49.8,29.84,NW,312,1.0,3.0,91,0.00,,,0.00,Wunderground v.1.15,2013-09-21 07:18:00,
2013-09-21 02:19:00,52.4,49.8,29.84,NW,312,1.0,3.0,91,0.00,,,0.00,Wunderground v.1.15,2013-09-21 07:19:00,
2013-09-21 02:20:00,52.4,49.8,29.84,NW,313,1.0,3.0,91,0.00,,,0.00,Wunderground v.1.15,2013-09-21 07:20:00,
2013-09-21 02:24:00,52.3,49.8,29.84,NW,313,1.0,4.0,91,0.00,,,0.00,Wunderground v.1.15,2013-09-21 07:24:00,
2013-09-21 02:26:00,52.3,49.8,29.84,NW,313,1.0,4.0,91,0.00,,,0.00,Wunderground v.1.15,2013-09-21 07:26:00,
2013-09-21 02:28:00,52.3,49.8,29.84,NW,313,1.0,4.0,91,0.00,,,0.00,Wunderground v.1.15,2013-09-21 07:28:00,
2013-09-21 02:31:00,52.2,49.7,29.84,NW,317,2.0,5.0,91,0.00,,,0.00,Wunderground v.1.15,2013-09-21 07:31:00,
2013-09-21 02:32:00,52.2,49.7,29.84,NW,317,2.0,5.0,91,0.00,,,0.00,Wunderground v.1.15,2013-09-21 07:32:00,
2013-09-21 02:34:00,52.2,49.7,29.84,NW,317,2.0,5.0,91,0.00,,,0.00,Wunderground v.1.15,2013-09-21 07:34:00,
2013-09-21 02:36:00,52.2,49.7,29.84,NW,317,1.0,5.0,91,0.00,,,0.00,Wunderground v.1.15,2013-09-21 07:36:00,
2013-09-21 02:38:00,52.1,49.6,29.84,NW,317,1.0,5.0,91,0.00,,,0.00,Wunderground v.1.15,2013-09-21 07:38:00,
2013-09-21 02:41:00,52.1,49.6,29.84,NW,317,1.0,2.0,91,0.00,,,0.00,Wunderground v.1.15,2013-09-21 07:41:00,
2013-09-21 02:43:00,52.1,49.8,29.84,NW,317,1.0,2.0,92,0.00,,,0.00,Wunderground v.1.15,2013-09-21 07:43:00,
2013-09-21 02:44:00,52.0,49.7,29.84,NW,317,1.0,2.0,92,0.00,,,0.00,Wunderground v.1.15,2013-09-21 07:44:00,
2013-09-21 02:47:00,52.0,49.5,29.84,NW,317,1.0,2.0,91,0.00,,,0.00,Wunderground v.1.15,2013-09-21 07:47:00,
2013-09-21 02:49:00,51.9,49.4,29.83,NW,317,1.0,2.0,91,0.00,,,0.00,Wunderground v.1.15,2013-09-21 07:49:00,
2013-09-21 02:50:00,51.9,49.4,29.83,NW,317,0.0,0.0,91,0.00,,,0.00,Wunderground v.1.15,2013-09-21 07:50:00,
2013-09-21 02:53:00,51.9,49.4,29.83,NW,317,0.0,0.0,91,0.00,,,0.00,Wunderground v.1.15,2013-09-21 07:53:00,
2013-09-21 02:54:00,51.9,49.6,29.83,NW,317,0.0,0.0,92,0.00,,,0.00,Wunderground v.1.15,2013-09-21 07:54:00,
2013-09-21 02:56:00,51.8,49.3,29.84,NW,317,0.0,0.0,91,0.00,,,0.00,Wunderground v.1.15,2013-09-21 07:56:00,
2013-09-21 02:58:00,51.8,49.5,29.84,NW,317,0.0,1.0,92,0.00,,,0.00,Wunderground v.1.15,2013-09-21 07:58:00,
2013-09-21 02:59:00,51.7,49.5,29.83,NW,317,0.0,1.0,92,0.00,,,0.00,Wunderground v.1.15,2013-09-21 07:59:00,
2013-09-21 03:00:00,51.7,49.5,29.84,NW,317,0.0,0.0,92,0.00,,,0.00,Wunderground v.1.15,2013-09-21 08:00:00,
2013-09-21 03:04:00,51.7,49.5,29.83,NW,317,1.0,1.0,92,0.00,,,0.00,Wunderground v.1.15,2013-09-21 08:04:00,
2013-09-21 03:05:00,51.6,49.4,29.84,NW,317,1.0,1.0,92,0.00,,,0.00,Wunderground v.1.15,2013-09-21 08:05:00,
2013-09-21 03:06:00,51.6,49.4,29.83,NW,317,1.0,1.0,92,0.00,,,0.00,Wunderground v.1.15,2013-09-21 08:06:00,
2013-09-21 03:09:00,51.5,49.3,29.84,NW,317,0.0,1.0,92,0.00,,,0.00,Wunderground v.1.15,2013-09-21 08:09:00,
2013-09-21 03:10:00,51.5,49.3,29.84,NW,317,0.0,1.0,92,0.00,,,0.00,Wunderground v.1.15,2013-09-21 08:10:00,
2013-09-21 03:11:00,51.4,49.2,29.84,NW,317,0.0,1.0,92,0.00,,,0.00,Wunderground v.1.15,2013-09-21 08:11:00,
2013-09-21 03:14:00,51.4,49.2,29.84,NW,317,0.0,1.0,92,0.00,,,0.00,Wunderground v.1.15,2013-09-21 08:14:00,
2013-09-21 03:15:00,51.4,49.2,29.84,NW,317,0.0,1.0,92,0.00,,,0.00,Wunderground v.1.15,2013-09-21 08:15:00,
2013-09-21 03:16:00,51.3,49.1,29.84,NW,317,0.0,1.0,92,0.00,,,0.00,Wunderground v.1.15,2013-09-21 08:16:00,
2013-09-21 03:18:00,51.3,49.1,29.84,NW,317,0.0,1.0,92,0.00,,,0.00,Wunderground v.1.15,2013-09-21 08:18:00,
2013-09-21 03:20:00,51.3,49.1,29.84,NW,317,1.0,2.0,92,0.00,,,0.00,Wunderground v.1.15,2013-09-21 08:20:00,
2013-09-21 03:21:00,51.2,49.0,29.84,NW,317,1.0,2.0,92,0.00,,,0.00,Wunderground v.1.15,2013-09-21 08:21:00,
2013-09-21 03:23:00,51.2,49.0,29.84,NW,317,1.0,2.0,92,0.00,,,0.00,Wunderground v.1.15,2013-09-21 08:23:00,
2013-09-21 03:24:00,51.1,48.9,29.84,NW,317,1.0,2.0,92,0.00,,,0.00,Wunderground v.1.15,2013-09-21 08:24:00,
2013-09-21 03:28:00,51.1,48.9,29.84,NW,317,1.0,2.0,92,0.00,,,0.00,Wunderground v.1.15,2013-09-21 08:28:00,
2013-09-21 03:30:00,51.0,48.8,29.84,NW,317,0.0,0.0,92,0.00,,,0.00,Wunderground v.1.15,2013-09-21 08:30:00,
2013-09-21 03:32:00,51.0,48.8,29.84,NW,317,0.0,0.0,92,0.00,,,0.00,Wunderground v.1.15,2013-09-21 08:32:00,
2013-09-21 03:33:00,50.9,48.7,29.84,NW,317,0.0,0.0,92,0.00,,,0.00,Wunderground v.1.15,2013-09-21 08:33:00,
2013-09-21 03:36:00,50.9,48.7,29.84,NW,317,0.0,0.0,92,0.00,,,0.00,Wunderground v.1.15,2013-09-21 08:36:00,
2013-09-21 03:39:00,50.8,48.6,29.84,NW,317,0.0,0.0,92,0.00,,,0.00,Wunderground v.1.15,2013-09-21 08:39:00,
2013-09-21 03:40:00,50.8,48.6,29.84,NW,317,0.0,0.0,92,0.00,,,0.00,Wunderground v.1.15,2013-09-21 08:40:00,
2013-09-21 03:41:00,50.8,48.6,29.84,NW,317,0.0,0.0,92,0.00,,,0.00,Wunderground v.1.15,2013-09-21 08:41:00,
2013-09-21 03:44:00,50.8,48.6,29.84,NW,317,0.0,0.0,92,0.00,,,0.00,Wunderground v.1.15,2013-09-21 08:44:00,
2013-09-21 03:47:00,50.7,48.5,29.84,NW,317,0.0,0.0,92,0.00,,,0.00,Wunderground v.1.15,2013-09-21 08:47:00,
2013-09-21 03:49:00,50.6,48.4,29.84,NW,317,0.0,0.0,92,0.00,,,0.00,Wunderground v.1.15,2013-09-21 08:49:00,
2013-09-21 03:52:00,50.6,48.4,29.84,NW,317,0.0,0.0,92,0.00,,,0.00,Wunderground v.1.15,2013-09-21 08:52:00,
2013-09-21 03:53:00,50.5,48.6,29.84,NW,317,0.0,0.0,93,0.00,,,0.00,Wunderground v.1.15,2013-09-21 08:53:00,
2013-09-21 03:54:00,50.5,48.6,29.84,NW,317,0.0,1.0,93,0.00,,,0.00,Wunderground v.1.15,2013-09-21 08:54:00,
2013-09-21 03:58:00,50.5,48.6,29.84,NW,317,0.0,1.0,93,0.00,,,0.00,Wunderground v.1.15,2013-09-21 08:58:00,
2013-09-21 04:00:00,50.4,48.2,29.84,NW,317,0.0,0.0,92,0.00,,,0.00,Wunderground v.1.15,2013-09-21 09:00:00,
2013-09-21 04:01:00,50.4,48.5,29.84,NW,317,0.0,2.0,93,0.00,,,0.00,Wunderground v.1.15,2013-09-21 09:01:00,
2013-09-21 04:02:00,50.3,48.4,29.84,NW,317,0.0,2.0,93,0.00,,,0.00,Wunderground v.1.15,2013-09-21 09:02:00,
2013-09-21 04:03:00,50.3,48.4,29.84,NW,317,0.0,2.0,93,0.00,,,0.00,Wunderground v.1.15,2013-09-21 09:03:00,
2013-09-21 04:06:00,50.3,48.4,29.84,NW,317,0.0,2.0,93,0.00,,,0.00,Wunderground v.1.15,2013-09-21 09:06:00,
2013-09-21 04:07:00,50.3,48.4,29.84,NW,317,0.0,2.0,93,0.00,,,0.00,Wunderground v.1.15,2013-09-21 09:07:00,
2013-09-21 04:08:00,50.2,48.3,29.84,NW,317,0.0,2.0,93,0.00,,,0.00,Wunderground v.1.15,2013-09-21 09:08:00,
2013-09-21 04:09:00,50.2,48.3,29.84,NW,317,0.0,2.0,93,0.00,,,0.00,Wunderground v.1.15,2013-09-21 09:09:00,
2013-09-21 04:11:00,50.2,48.3,29.84,NW,317,0.0,0.0,93,0.00,,,0.00,Wunderground v.1.15,2013-09-21 09:11:00,
2013-09-21 04:15:00,50.1,48.2,29.84,NW,317,0.0,1.0,93,0.00,,,0.00,Wunderground v.1.15,2013-09-21 09:15:00,
2013-09-21 04:16:00,50.1,48.2,29.84,NW,317,0.0,1.0,93,0.00,,,0.00,Wunderground v.1.15,2013-09-21 09:16:00,
2013-09-21 04:20:00,50.1,48.2,29.84,NW,317,0.0,1.0,93,0.00,,,0.00,Wunderground v.1.15,2013-09-21 09:20:00,
2013-09-21 04:22:00,50.1,48.2,29.84,NW,317,0.0,1.0,93,0.00,,,0.00,Wunderground v.1.15,2013-09-21 09:22:00,
2013-09-21 04:23:00,50.0,48.1,29.84,NW,317,1.0,2.0,93,0.00,,,0.00,Wunderground v.1.15,2013-09-21 09:23:00,
2013-09-21 04:25:00,50.0,48.1,29.84,NW,317,1.0,2.0,93,0.00,,,0.00,Wunderground v.1.15,2013-09-21 09:25:00,
2013-09-21 04:30:00,49.9,48.0,29.84,NW,317,0.0,0.0,93,0.00,,,0.00,Wunderground v.1.15,2013-09-21 09:30:00,
2013-09-21 04:31:00,49.9,48.0,29.84,NW,317,0.0,0.0,93,0.00,,,0.00,Wunderground v.1.15,2013-09-21 09:31:00,
2013-09-21 04:35:00,49.8,47.9,29.84,NW,317,0.0,0.0,93,0.00,,,0.00,Wunderground v.1.15,2013-09-21 09:35:00,
2013-09-21 04:36:00,49.8,47.9,29.84,NW,317,0.0,0.0,93,0.00,,,0.00,Wunderground v.1.15,2013-09-21 09:36:00,
2013-09-21 04:38:00,49.8,47.9,29.84,NW,317,0.0,0.0,93,0.00,,,0.00,Wunderground v.1.15,2013-09-21 09:38:00,
2013-09-21 04:42:00,49.7,47.8,29.84,NW,317,0.0,0.0,93,0.00,,,0.00,Wunderground v.1.15,2013-09-21 09:42:00,
2013-09-21 04:43:00,49.7,47.8,29.84,NW,317,0.0,0.0,93,0.00,,,0.00,Wunderground v.1.15,2013-09-21 09:43:00,
2013-09-21 04:44:00,49.6,47.7,29.84,NW,317,0.0,0.0,93,0.00,,,0.00,Wunderground v.1.15,2013-09-21 09:44:00,
2013-09-21 04:47:00,49.5,47.6,29.84,NW,317,0.0,0.0,93,0.00,,,0.00,Wunderground v.1.15,2013-09-21 09:47:00,
2013-09-21 04:49:00,49.5,47.6,29.84,NW,317,0.0,0.0,93,0.00,,,0.00,Wunderground v.1.15,2013-09-21 09:49:00,
2013-09-21 04:50:00,49.5,47.6,29.84,NW,317,0.0,0.0,93,0.00,,,0.00,Wunderground v.1.15,2013-09-21 09:50:00,
2013-09-21 04:51:00,49.5,47.6,29.85,NW,317,0.0,0.0,93,0.00,,,0.00,Wunderground v.1.15,2013-09-21 09:51:00,
2013-09-21 04:52:00,49.5,47.6,29.84,NW,317,0.0,1.0,93,0.00,,,0.00,Wunderground v.1.15,2013-09-21 09:52:00,
2013-09-21 04:53:00,49.5,47.6,29.85,NW,317,0.0,1.0,93,0.00,,,0.00,Wunderground v.1.15,2013-09-21 09:53:00,
2013-09-21 04:55:00,49.4,47.5,29.85,NW,317,0.0,1.0,93,0.00,,,0.00,Wunderground v.1.15,2013-09-21 09:55:00,
2013-09-21 04:57:00,49.4,47.5,29.85,NW,317,0.0,3.0,93,0.00,,,0.00,Wunderground v.1.15,2013-09-21 09:57:00,
2013-09-21 04:59:00,49.4,47.5,29.85,NW,317,1.0,3.0,93,0.00,,,0.00,Wunderground v.1.15,2013-09-21 09:59:00,
2013-09-21 05:01:00,49.4,47.5,29.84,NW,317,1.0,1.0,93,0.00,,,0.00,Wunderground v.1.15,2013-09-21 10:01:00,
2013-09-21 05:03:00,49.4,47.5,29.84,NW,317,1.0,1.0,93,0.00,,,0.00,Wunderground v.1.15,2013-09-21 10:03:00,
2013-09-21 05:04:00,49.4,47.5,29.84,NW,317,1.0,1.0,93,0.00,,,0.00,Wunderground v.1.15,2013-09-21 10:04:00,
2013-09-21 05:05:00,49.3,47.4,29.84,NW,317,1.0,1.0,93,0.00,,,0.00,Wunderground v.1.15,2013-09-21 10:05:00,
2013-09-21 05:06:00,49.3,47.4,29.84,NW,317,1.0,1.0,93,0.00,,,0.00,Wunderground v.1.15,2013-09-21 10:06:00,
2013-09-21 05:09:00,49.2,47.3,29.84,NW,317,0.0,1.0,93,0.00,,,0.00,Wunderground v.1.15,2013-09-21 10:09:00,
2013-09-21 05:12:00,49.2,47.5,29.85,NW,317,0.0,0.0,94,0.00,,,0.00,Wunderground v.1.15,2013-09-21 10:12:00,
2013-09-21 05:13:00,49.2,47.5,29.85,NW,317,0.0,0.0,94,0.00,,,0.00,Wunderground v.1.15,2013-09-21 10:13:00,
2013-09-21 05:17:00,49.1,47.4,29.85,NW,317,0.0,1.0,94,0.00,,,0.00,Wunderground v.1.15,2013-09-21 10:17:00,
2013-09-21 05:19:00,49.1,47.4,29.85,NW,317,0.0,1.0,94,0.00,,,0.00,Wunderground v.1.15,2013-09-21 10:19:00,
2013-09-21 05:20:00,49.0,47.3,29.85,NW,317,0.0,0.0,94,0.00,,,0.00,Wunderground v.1.15,2013-09-21 10:20:00,
2013-09-21 05:23:00,49.0,47.3,29.85,NW,317,0.0,0.0,94,0.00,,,0.00,Wunderground v.1.15,2013-09-21 10:23:00,
2013-09-21 05:24:00,49.0,47.3,29.85,NW,317,0.0,0.0,94,0.00,,,0.00,Wunderground v.1.15,2013-09-21 10:24:00,
2013-09-21 05:25:00,49.0,47.3,29.85,NW,317,0.0,0.0,94,0.00,,,0.00,Wunderground v.1.15,2013-09-21 10:25:00,
2013-09-21 05:28:00,49.0,47.3,29.85,NW,317,0.0,1.0,94,0.00,,,0.00,Wunderground v.1.15,2013-09-21 10:28:00,
2013-09-21 05:30:00,49.0,47.3,29.85,NW,317,0.0,0.0,94,0.00,,,0.00,Wunderground v.1.15,2013-09-21 10:30:00,
2013-09-21 05:34:00,48.9,47.2,29.85,NW,317,1.0,2.0,94,0.00,,,0.00,Wunderground v.1.15,2013-09-21 10:34:00,
2013-09-21 05:35:00,48.9,47.2,29.86,NW,317,0.0,2.0,94,0.00,,,0.00,Wunderground v.1.15,2013-09-21 10:35:00,
2013-09-21 05:36:00,48.9,47.2,29.86,NW,317,0.0,2.0,94,0.00,,,0.00,Wunderground v.1.15,2013-09-21 10:36:00,
2013-09-21 05:40:00,48.9,47.2,29.86,NW,317,0.0,0.0,94,0.00,,,0.00,Wunderground v.1.15,2013-09-21 10:40:00,
2013-09-21 05:41:00,48.8,47.2,29.86,NW,317,0.0,0.0,94,0.00,,,0.00,Wunderground v.1.15,2013-09-21 10:41:00,
2013-09-21 05:42:00,48.8,47.2,29.86,NW,317,0.0,2.0,94,0.00,,,0.00,Wunderground v.1.15,2013-09-21 10:42:00,
2013-09-21 05:44:00,48.9,47.2,29.86,NW,317,0.0,2.0,94,0.00,,,0.00,Wunderground v.1.15,2013-09-21 10:44:00,
2013-09-21 05:47:00,48.8,47.2,29.86,NW,317,0.0,2.0,94,0.00,,,0.00,Wunderground v.1.15,2013-09-21 10:47:00,
2013-09-21 05:51:00,48.8,47.2,29.86,NW,317,0.0,1.0,94,0.00,,,0.00,Wunderground v.1.15,2013-09-21 10:51:00,
2013-09-21 05:52:00,48.8,47.2,29.86,NW,317,0.0,1.0,94,0.00,,,0.00,Wunderground v.1.15,2013-09-21 10:52:00,
2013-09-21 05:56:00,48.7,47.1,29.86,NW,317,0.0,2.0,94,0.00,,,0.00,Wunderground v.1.15,2013-09-21 10:56:00,
2013-09-21 05:57:00,48.7,47.1,29.86,NW,317,0.0,2.0,94,0.00,,,0.00,Wunderground v.1.15,2013-09-21 10:57:00,
2013-09-21 05:58:00,48.7,47.1,29.86,NW,317,0.0,2.0,94,0.00,,,0.00,Wunderground v.1.15,2013-09-21 10:58:00,
2013-09-21 06:02:00,48.6,47.0,29.86,NW,317,0.0,0.0,94,0.00,,,0.00,Wunderground v.1.15,2013-09-21 11:02:00,
2013-09-21 06:03:00,48.6,47.0,29.86,NW,317,0.0,2.0,94,0.00,,,0.00,Wunderground v.1.15,2013-09-21 11:03:00,
2013-09-21 06:04:00,48.5,46.9,29.86,NW,317,0.0,2.0,94,0.00,,,0.00,Wunderground v.1.15,2013-09-21 11:04:00,
2013-09-21 06:05:00,48.5,46.9,29.86,NW,317,0.0,2.0,94,0.00,,,0.00,Wunderground v.1.15,2013-09-21 11:05:00,
2013-09-21 06:07:00,48.5,46.9,29.86,NW,316,0.0,2.0,94,0.00,,,0.00,Wunderground v.1.15,2013-09-21 11:07:00,
2013-09-21 06:08:00,48.4,46.8,29.86,NW,316,0.0,2.0,94,0.00,,,0.00,Wunderground v.1.15,2013-09-21 11:08:00,
2013-09-21 06:09:00,48.4,46.8,29.86,NW,317,0.0,2.0,94,0.00,,,0.00,Wunderground v.1.15,2013-09-21 11:09:00,
2013-09-21 06:10:00,48.4,46.8,29.86,NW,316,0.0,0.0,94,0.00,,,0.00,Wunderground v.1.15,2013-09-21 11:10:00,
2013-09-21 06:13:00,48.3,46.7,29.86,NW,317,0.0,0.0,94,0.00,,,0.00,Wunderground v.1.15,2013-09-21 11:13:00,
2013-09-21 06:15:00,48.3,46.7,29.86,NW,316,0.0,0.0,94,0.00,,,0.00,Wunderground v.1.15,2013-09-21 11:15:00,
2013-09-21 06:16:00,48.2,46.6,29.87,NW,316,0.0,1.0,94,0.00,,,0.00,Wunderground v.1.15,2013-09-21 11:16:00,
2013-09-21 06:18:00,48.2,46.6,29.87,NW,318,0.0,1.0,94,0.00,,,0.00,Wunderground v.1.15,2013-09-21 11:18:00,
2013-09-21 06:20:00,48.2,46.6,29.87,NW,318,0.0,0.0,94,0.00,,,0.00,Wunderground v.1.15,2013-09-21 11:20:00,
2013-09-21 06:24:00,48.1,46.5,29.87,NW,318,0.0,1.0,94,0.00,,,0.00,Wunderground v.1.15,2013-09-21 11:24:00,
2013-09-21 06:25:00,48.1,46.5,29.87,NW,318,0.0,1.0,94,0.00,,,0.00,Wunderground v.1.15,2013-09-21 11:25:00,
2013-09-21 06:28:00,48.0,46.4,29.87,NW,318,0.0,2.0,94,0.00,,,0.00,Wunderground v.1.15,2013-09-21 11:28:00,
2013-09-21 06:29:00,48.0,46.4,29.87,NW,318,0.0,2.0,94,0.00,,,0.00,Wunderground v.1.15,2013-09-21 11:29:00,
2013-09-21 06:30:00,48.0,46.4,29.87,NW,318,0.0,0.0,94,0.00,,,0.00,Wunderground v.1.15,2013-09-21 11:30:00,
2013-09-21 06:33:00,48.0,46.4,29.87,NW,318,0.0,2.0,94,0.00,,,0.00,Wunderground v.1.15,2013-09-21 11:33:00,
2013-09-21 06:36:00,48.0,46.4,29.87,NW,318,0.0,2.0,94,0.00,,,0.00,Wunderground v.1.15,2013-09-21 11:36:00,
2013-09-21 06:39:00,48.0,46.4,29.87,NW,318,0.0,2.0,94,0.00,,,0.00,Wunderground v.1.15,2013-09-21 11:39:00,
2013-09-21 06:40:00,48.1,46.5,29.87,NW,318,1.0,1.0,94,0.00,,,0.00,Wunderground v.1.15,2013-09-21 11:40:00,
2013-09-21 06:42:00,48.0,46.6,29.87,NW,318,1.0,1.0,95,0.00,,,0.00,Wunderground v.1.15,2013-09-21 11:42:00,
2013-09-21 06:45:00,48.1,46.7,29.87,NW,318,0.0,1.0,95,0.00,,,0.00,Wunderground v.1.15,2013-09-21 11:45:00,
2013-09-21 06:46:00,48.0,46.6,29.88,NW,318,0.0,1.0,95,0.00,,,0.00,Wunderground v.1.15,2013-09-21 11:46:00,
2013-09-21 06:47:00,48.0,46.4,29.88,NW,318,0.0,1.0,94,0.00,,,0.00,Wunderground v.1.15,2013-09-21 11:47:00,
2013-09-21 06:48:00,48.0,46.4,29.87,NW,318,0.0,1.0,94,0.00,,,0.00,Wunderground v.1.15,2013-09-21 11:48:00,
2013-09-21 06:50:00,48.0,46.4,29.88,NW,318,0.0,1.0,94,0.00,,,0.00,Wunderground v.1.15,2013-09-21 11:50:00,
2013-09-21 06:53:00,48.0,46.4,29.88,NW,318,1.0,2.0,94,0.00,,,0.00,Wunderground v.1.15,2013-09-21 11:53:00,
2013-09-21 06:56:00,48.0,46.6,29.88,NW,318,1.0,2.0,95,0.00,,,0.00,Wunderground v.1.15,2013-09-21 11:56:00,
2013-09-21 06:57:00,48.0,46.6,29.88,NW,318,1.0,2.0,95,0.00,,,0.00,Wunderground v.1.15,2013-09-21 11:57:00,
2013-09-21 07:01:00,47.9,46.5,29.88,NW,319,1.0,1.0,95,0.00,,,0.00,Wunderground v.1.15,2013-09-21 12:01:00,
2013-09-21 07:03:00,47.9,46.5,29.88,NW,319,1.0,1.0,95,0.00,,,0.00,Wunderground v.1.15,2013-09-21 12:03:00,
2013-09-21 07:04:00,47.9,46.3,29.88,NW,319,1.0,1.0,94,0.00,,,0.00,Wunderground v.1.15,2013-09-21 12:04:00,
2013-09-21 07:05:00,47.9,46.5,29.88,NW,319,0.0,1.0,95,0.00,,,0.00,Wunderground v.1.15,2013-09-21 12:05:00,
2013-09-21 07:06:00,47.9,46.3,29.88,NW,319,0.0,1.0,94,0.00,,,0.00,Wunderground v.1.15,2013-09-21 12:06:00,
2013-09-21 07:09:00,47.9,46.3,29.88,NW,319,0.0,1.0,94,0.00,,,0.00,Wunderground v.1.15,2013-09-21 12:09:00,
2013-09-21 07:12:00,48.0,46.6,29.88,NW,318,0.0,2.0,95,0.00,,,0.00,Wunderground v.1.15,2013-09-21 12:12:00,
2013-09-21 07:13:00,48.0,46.6,29.88,NW,318,0.0,2.0,95,0.00,,,0.00,Wunderground v.1.15,2013-09-21 12:13:00,
2013-09-21 07:16:00,48.1,46.7,29.88,NW,319,1.0,2.0,95,0.00,,,0.00,Wunderground v.1.15,2013-09-21 12:16:00,
2013-09-21 07:17:00,48.1,46.7,29.88,NW,319,1.0,2.0,95,0.00,,,0.00,Wunderground v.1.15,2013-09-21 12:17:00,
2013-09-21 07:18:00,48.1,46.7,29.89,NW,319,1.0,2.0,95,0.00,,,0.00,Wunderground v.1.15,2013-09-21 12:18:00,
2013-09-21 07:22:00,48.2,46.8,29.89,NW,318,1.0,2.0,95,0.00,,,0.00,Wunderground v.1.15,2013-09-21 12:22:00,
2013-09-21 07:23:00,48.2,46.8,29.89,NW,317,1.0,2.0,95,0.00,,,0.00,Wunderground v.1.15,2013-09-21 12:23:00,
2013-09-21 07:24:00,48.2,46.8,29.89,NW,318,1.0,3.0,95,0.00,,,0.00,Wunderground v.1.15,2013-09-21 12:24:00,
2013-09-21 07:27:00,48.3,46.9,29.89,NW,318,1.0,3.0,95,0.00,,,0.00,Wunderground v.1.15,2013-09-21 12:27:00,
2013-09-21 07:29:00,48.4,47.0,29.89,NW,317,1.0,3.0,95,0.00,,,0.00,Wunderground v.1.15,2013-09-21 12:29:00,
2013-09-21 07:31:00,48.5,47.1,29.89,NW,317,1.0,2.0,95,0.00,,,0.00,Wunderground v.1.15,2013-09-21 12:31:00,
2013-09-21 07:33:00,48.6,47.2,29.89,NW,317,1.0,2.0,95,0.00,,,0.00,Wunderground v.1.15,2013-09-21 12:33:00,
2013-09-21 07:36:00,48.8,47.4,29.89,NNW,330,1.0,5.0,95,0.00,,,0.00,Wunderground v.1.15,2013-09-21 12:36:00,
2013-09-21 07:38:00,48.8,47.4,29.89,NNW,330,2.0,5.0,95,0.00,,,0.00,Wunderground v.1.15,2013-09-21 12:38:00,
2013-09-21 07:39:00,48.9,47.5,29.89,NNW,330,2.0,5.0,95,0.00,,,0.00,Wunderground v.1.15,2013-09-21 12:39:00,
2013-09-21 07:41:00,49.0,47.6,29.89,NNW,330,2.0,4.0,95,0.00,,,0.00,Wunderground v.1.15,2013-09-21 12:41:00,
2013-09-21 07:43:00,49.1,47.7,29.89,NNW,330,2.0,4.0,95,0.00,,,0.00,Wunderground v.1.15,2013-09-21 12:43:00,
2013-09-21 07:44:00,49.2,47.8,29.89,NNW,330,2.0,4.0,95,0.00,,,0.00,Wunderground v.1.15,2013-09-21 12:44:00,
2013-09-21 07:48:00,49.5,48.1,29.89,NNW,330,1.0,4.0,95,0.00,,,0.00,Wunderground v.1.15,2013-09-21 12:48:00,
2013-09-21 07:50:00,49.7,48.6,29.89,NNW,330,2.0,5.0,96,0.00,,,0.00,Wunderground v.1.15,2013-09-21 12:50:00,
2013-09-21 07:51:00,49.8,48.7,29.89,NNW,331,2.0,5.0,96,0.00,,,0.00,Wunderground v.1.15,2013-09-21 12:51:00,
2013-09-21 07:54:00,50.0,48.6,29.89,NNW,331,2.0,5.0,95,0.00,,,0.00,Wunderground v.1.15,2013-09-21 12:54:00,
2013-09-21 07:56:00,50.2,48.8,29.90,NNW,331,2.0,5.0,95,0.00,,,0.00,Wunderground v.1.15,2013-09-21 12:56:00,
2013-09-21 07:58:00,50.3,49.2,29.90,NNW,331,2.0,5.0,96,0.00,,,0.00,Wunderground v.1.15,2013-09-21 12:58:00,
2013-09-21 07:59:00,50.4,49.3,29.90,NNW,327,2.0,5.0,96,0.00,,,0.00,Wunderground v.1.15,2013-09-21 12:59:00,
2013-09-21 08:04:00,50.8,49.4,29.89,NNW,331,2.0,6.0,95,0.00,,,0.00,Wunderground v.1.15,2013-09-21 13:04:00,
2013-09-21 08:05:00,50.9,49.5,29.89,NNW,334,2.0,6.0,95,0.00,,,0.00,Wunderground v.1.15,2013-09-21 13:05:00,
2013-09-21 08:08:00,51.1,49.7,29.89,NNW,333,3.0,6.0,95,0.00,,,0.00,Wunderground v.1.15,2013-09-21 13:08:00,
2013-09-21 08:09:00,51.2,49.8,29.89,NNW,332,3.0,6.0,95,0.00,,,0.00,Wunderground v.1.15,2013-09-21 13:09:00,
2013-09-21 08:11:00,51.3,49.9,29.89,NNW,333,3.0,4.0,95,0.00,,,0.00,Wunderground v.1.15,2013-09-21 13:11:00,
2013-09-21 08:12:00,51.4,50.0,29.89,NNW,333,3.0,4.0,95,0.00,,,0.00,Wunderground v.1.15,2013-09-21 13:12:00,
2013-09-21 08:14:00,51.5,50.1,29.90,NNW,333,3.0,4.0,95,0.00,,,0.00,Wunderground v.1.15,2013-09-21 13:14:00,
2013-09-21 08:15:00,51.6,50.2,29.90,NW,313,3.0,4.0,95,0.00,,,0.00,Wunderground v.1.15,2013-09-21 13:15:00,
2013-09-21 08:16:00,51.7,50.3,29.90,NNW,334,3.0,4.0,95,0.00,,,0.00,Wunderground v.1.15,2013-09-21 13:16:00,
2013-09-21 08:17:00,51.7,50.3,29.90,NNW,334,3.0,4.0,95,0.00,,,0.00,Wunderground v.1.15,2013-09-21 13:17:00,
2013-09-21 08:19:00,51.9,50.5,29.90,NW,321,3.0,5.0,95,0.00,,,0.00,Wunderground v.1.15,2013-09-21 13:19:00,
2013-09-21 08:20:00,51.9,50.5,29.90,NW,326,3.0,3.0,95,0.00,,,0.00,Wunderground v.1.15,2013-09-21 13:20:00,
2013-09-21 08:22:00,52.1,50.7,29.90,NW,326,3.0,4.0,95,0.00,,,0.00,Wunderground v.1.15,2013-09-21 13:22:00,
2013-09-21 08:24:00,52.2,50.8,29.90,NW,325,3.0,5.0,95,0.00,,,0.00,Wunderground v.1.15,2013-09-21 13:24:00,
2013-09-21 08:26:00,52.3,50.6,29.90,North,360,4.0,5.0,94,0.00,,,0.00,Wunderground v.1.15,2013-09-21 13:26:00,
2013-09-21 08:29:00,52.4,50.7,29.90,NNW,341,4.0,5.0,94,0.00,,,0.00,Wunderground v.1.15,2013-09-21 13:29:00,
2013-09-21 08:30:00,52.5,50.8,29.90,NNW,338,4.0,5.0,94,0.00,,,0.00,Wunderground v.1.15,2013-09-21 13:30:00,
2013-09-21 08:31:00,52.6,50.9,29.90,NNW,338,4.0,5.0,94,0.00,,,0.00,Wunderground v.1.15,2013-09-21 13:31:00,
2013-09-21 08:32:00,52.6,50.9,29.90,NNW,337,4.0,5.0,94,0.00,,,0.00,Wunderground v.1.15,2013-09-21 13:32:00,
2013-09-21 08:37:00,53.1,51.4,29.90,NNW,339,3.0,5.0,94,0.00,,,0.00,Wunderground v.1.15,2013-09-21 13:37:00,
2013-09-21 08:38:00,53.2,51.5,29.90,NNW,338,3.0,6.0,94,0.00,,,0.00,Wunderground v.1.15,2013-09-21 13:38:00,
2013-09-21 08:40:00,53.3,51.3,29.90,NNW,343,4.0,4.0,93,0.00,,,0.00,Wunderground v.1.15,2013-09-21 13:40:00,
2013-09-21 08:42:00,53.5,51.5,29.90,NNW,343,3.0,9.0,93,0.00,,,0.00,Wunderground v.1.15,2013-09-21 13:42:00,
2013-09-21 08:43:00,53.5,51.5,29.90,NNW,348,4.0,9.0,93,0.00,,,0.00,Wunderground v.1.15,2013-09-21 13:43:00,
2013-09-21 08:44:00,53.6,51.6,29.90,NNW,333,4.0,9.0,93,0.00,,,0.00,Wunderground v.1.15,2013-09-21 13:44:00,
2013-09-21 08:46:00,53.8,51.8,29.90,NNW,335,4.0,9.0,93,0.00,,,0.00,Wunderground v.1.15,2013-09-21 13:46:00,
2013-09-21 08:49:00,54.0,51.7,29.90,NNW,332,4.0,9.0,92,0.00,,,0.00,Wunderground v.1.15,2013-09-21 13:49:00,
2013-09-21 08:50:00,54.1,51.8,29.90,NNW,346,4.0,6.0,92,0.00,,,0.00,Wunderground v.1.15,2013-09-21 13:50:00,
2013-09-21 08:51:00,54.2,51.6,29.90,NW,316,5.0,6.0,91,0.00,,,0.00,Wunderground v.1.15,2013-09-21 13:51:00,
2013-09-21 08:53:00,54.3,51.4,29.90,NW,311,4.0,6.0,90,0.00,,,0.00,Wunderground v.1.15,2013-09-21 13:53:00,
2013-09-21 08:55:00,54.5,51.6,29.90,NW,325,4.0,6.0,90,0.00,,,0.00,Wunderground v.1.15,2013-09-21 13:55:00,
2013-09-21 08:56:00,54.6,51.4,29.90,NNW,335,5.0,6.0,89,0.00,,,0.00,Wunderground v.1.15,2013-09-21 13:56:00,
2013-09-21 08:57:00,54.6,51.4,29.90,NNW,331,5.0,6.0,89,0.00,,,0.00,Wunderground v.1.15,2013-09-21 13:57:00,
2013-09-21 09:00:00,54.9,51.7,29.90,NNW,338,4.0,4.0,89,0.00,,,0.00,Wunderground v.1.15,2013-09-21 14:00:00,
2013-09-21 09:03:00,55.2,51.7,29.90,WSW,247,3.0,5.0,88,0.00,,,0.00,Wunderground v.1.15,2013-09-21 14:03:00,
2013-09-21 09:05:00,55.3,51.8,29.90,NNW,340,4.0,6.0,88,0.00,,,0.00,Wunderground v.1.15,2013-09-21 14:05:00,
2013-09-21 09:06:00,55.4,51.9,29.90,NNW,344,4.0,6.0,88,0.00,,,0.00,Wunderground v.1.15,2013-09-21 14:06:00,
2013-09-21 09:10:00,55.6,51.2,29.90,NNW,329,4.0,7.0,85,0.00,,,0.00,Wunderground v.1.15,2013-09-21 14:10:00,
2013-09-21 09:11:00,55.7,51.3,29.90,WNW,294,5.0,7.0,85,0.00,,,0.00,Wunderground v.1.15,2013-09-21 14:11:00,
2013-09-21 09:13:00,55.8,51.4,29.90,NW,320,5.0,7.0,85,0.00,,,0.00,Wunderground v.1.15,2013-09-21 14:13:00,
2013-09-21 09:14:00,55.8,51.4,29.90,NNW,340,5.0,7.0,85,0.00,,,0.00,Wunderground v.1.15,2013-09-21 14:14:00,
2013-09-21 09:16:00,56.0,51.6,29.90,North,355,5.0,7.0,85,0.00,,,0.00,Wunderground v.1.15,2013-09-21 14:16:00,
2013-09-21 09:18:00,56.1,51.3,29.90,NNW,344,5.0,7.0,84,0.00,,,0.00,Wunderground v.1.15,2013-09-21 14:18:00,
2013-09-21 09:19:00,56.2,51.7,29.90,North,355,4.0,7.0,85,0.00,,,0.00,Wunderground v.1.15,2013-09-21 14:19:00,
2013-09-21 09:20:00,56.3,51.8,29.90,NNW,340,4.0,4.0,85,0.00,,,0.00,Wunderground v.1.15,2013-09-21 14:20:00,
2013-09-21 09:22:00,56.4,51.6,29.90,North,355,4.0,5.0,84,0.00,,,0.00,Wunderground v.1.15,2013-09-21 14:22:00,
2013-09-21 09:23:00,56.5,51.4,29.90,North,350,4.0,7.0,83,0.00,,,0.00,Wunderground v.1.15,2013-09-21 14:23:00,
2013-09-21 09:24:00,56.5,51.4,29.91,NNW,342,4.0,7.0,83,0.00,,,0.00,Wunderground v.1.15,2013-09-21 14:24:00,
2013-09-21 09:25:00,56.6,51.5,29.91,North,10,4.0,7.0,83,0.00,,,0.00,Wunderground v.1.15,2013-09-21 14:25:00,
2013-09-21 09:28:00,56.7,51.6,29.91,NNW,331,4.0,7.0,83,0.00,,,0.00,Wunderground v.1.15,2013-09-21 14:28:00,
2013-09-21 09:29:00,56.8,51.7,29.91,NW,315,4.0,7.0,83,0.00,,,0.00,Wunderground v.1.15,2013-09-21 14:29:00,
2013-09-21 09:30:00,56.8,51.4,29.90,NW,315,4.0,4.0,82,0.00,,,0.00,Wunderground v.1.15,2013-09-21 14:30:00,
2013-09-21 09:34:00,57.2,51.4,29.91,NNW,335,4.0,5.0,81,0.00,,,0.00,Wunderground v.1.15,2013-09-21 14:34:00,
2013-09-21 09:35:00,57.2,51.4,29.91,NNW,327,4.0,5.0,81,0.00,,,0.00,Wunderground v.1.15,2013-09-21 14:35:00,
2013-09-21 09:36:00,57.4,51.6,29.91,NNE,17,4.0,5.0,81,0.00,,,0.00,Wunderground v.1.15,2013-09-21 14:36:00,
2013-09-21 09:39:00,57.5,51.4,29.91,NNW,346,4.0,6.0,80,0.00,,,0.00,Wunderground v.1.15,2013-09-21 14:39:00,
2013-09-21 09:41:00,57.6,51.5,29.91,NNW,343,5.0,5.0,80,0.00,,,0.00,Wunderground v.1.15,2013-09-21 14:41:00,
2013-09-21 09:42:00,57.6,51.5,29.91,NNW,327,4.0,5.0,80,0.00,,,0.00,Wunderground v.1.15,2013-09-21 14:42:00,
2013-09-21 09:44:00,57.7,51.2,29.91,NNW,338,4.0,7.0,79,0.00,,,0.00,Wunderground v.1.15,2013-09-21 14:44:00,
2013-09-21 09:45:00,57.8,51.3,29.91,NNW,344,4.0,7.0,79,0.00,,,0.00,Wunderground v.1.15,2013-09-21 14:45:00,
2013-09-21 09:47:00,57.9,51.8,29.91,North,360,4.0,7.0,80,0.00,,,0.00,Wunderground v.1.15,2013-09-21 14:47:00,
2013-09-21 09:49:00,58.0,51.5,29.91,NNW,338,4.0,7.0,79,0.00,,,0.00,Wunderground v.1.15,2013-09-21 14:49:00,
2013-09-21 09:50:00,58.1,51.6,29.91,NNW,342,4.0,4.0,79,0.00,,,0.00,Wunderground v.1.15,2013-09-21 14:50:00,
2013-09-21 09:55:00,58.3,51.1,29.91,NW,315,4.0,7.0,77,0.00,,,0.00,Wunderground v.1.15,2013-09-21 14:55:00,
2013-09-21 09:56:00,58.3,51.1,29.91,NNW,333,5.0,7.0,77,0.00,,,0.00,Wunderground v.1.15,2013-09-21 14:56:00,
2013-09-21 09:57:00,58.3,51.5,29.91,NW,324,5.0,7.0,78,0.00,,,0.00,Wunderground v.1.15,2013-09-21 14:57:00,
2013-09-21 10:00:00,58.4,50.9,29.91,NNW,338,5.0,9.0,76,0.00,,,0.00,Wunderground v.1.15,2013-09-21 15:00:00,
2013-09-21 10:02:00,58.4,51.2,29.91,NW,325,5.0,9.0,77,0.00,,,0.00,Wunderground v.1.15,2013-09-21 15:02:00,
2013-09-21 10:03:00,58.5,51.0,29.91,NW,319,5.0,9.0,76,0.00,,,0.00,Wunderground v.1.15,2013-09-21 15:03:00,
2013-09-21 10:04:00,58.5,51.0,29.91,NNW,331,5.0,9.0,76,0.00,,,0.00,Wunderground v.1.15,2013-09-21 15:04:00,
2013-09-21 10:07:00,58.7,51.2,29.91,North,360,6.0,9.0,76,0.00,,,0.00,Wunderground v.1.15,2013-09-21 15:07:00,
2013-09-21 10:08:00,58.7,50.8,29.91,NNW,346,6.0,9.0,75,0.00,,,0.00,Wunderground v.1.15,2013-09-21 15:08:00,
2013-09-21 10:09:00,58.8,50.5,29.91,NNW,336,6.0,9.0,74,0.00,,,0.00,Wunderground v.1.15,2013-09-21 15:09:00,
2013-09-21 10:10:00,58.9,51.3,29.91,NNW,343,6.0,6.0,76,0.00,,,0.00,Wunderground v.1.15,2013-09-21 15:10:00,
2013-09-21 10:12:00,59.0,51.8,29.91,NW,319,6.0,6.0,77,0.00,,,0.00,Wunderground v.1.15,2013-09-21 15:12:00,
2013-09-21 10:14:00,59.2,51.6,29.91,NW,304,5.0,9.0,76,0.00,,,0.00,Wunderground v.1.15,2013-09-21 15:14:00,
2013-09-21 10:16:00,59.4,51.5,29.91,NW,324,5.0,9.0,75,0.00,,,0.00,Wunderground v.1.15,2013-09-21 15:16:00,
2013-09-21 10:19:00,59.6,51.3,29.91,NNW,338,4.0,9.0,74,0.00,,,0.00,Wunderground v.1.15,2013-09-21 15:19:00,
2013-09-21 10:20:00,59.7,51.4,29.91,West,261,4.0,4.0,74,0.00,,,0.00,Wunderground v.1.15,2013-09-21 15:20:00,
2013-09-21 10:22:00,59.8,51.5,29.91,NNW,335,4.0,4.0,74,0.00,,,0.00,Wunderground v.1.15,2013-09-21 15:22:00,
2013-09-21 10:24:00,59.9,50.8,29.91,NNW,333,5.0,5.0,72,0.00,,,0.00,Wunderground v.1.15,2013-09-21 15:24:00,
2013-09-21 10:25:00,59.9,50.8,29.91,NNW,342,5.0,5.0,72,0.00,,,0.00,Wunderground v.1.15,2013-09-21 15:25:00,
2013-09-21 10:26:00,59.9,50.8,29.91,NNE,28,5.0,7.0,72,0.00,,,0.00,Wunderground v.1.15,2013-09-21 15:26:00,
2013-09-21 10:30:00,59.9,50.8,29.91,NNW,342,6.0,6.0,72,0.00,,,0.00,Wunderground v.1.15,2013-09-21 15:30:00,
2013-09-21 10:31:00,60.0,50.6,29.91,NNW,331,6.0,6.0,71,0.00,,,0.00,Wunderground v.1.15,2013-09-21 15:31:00,
2013-09-21 10:32:00,60.0,50.9,29.91,NNW,334,6.0,6.0,72,0.00,,,0.00,Wunderground v.1.15,2013-09-21 15:32:00,
2013-09-21 10:33:00,60.0,50.9,29.91,NNW,332,6.0,6.0,72,0.00,,,0.00,Wunderground v.1.15,2013-09-21 15:33:00,
2013-09-21 10:36:00,60.3,51.2,29.91,NNW,336,5.0,10.0,72,0.00,,,0.00,Wunderground v.1.15,2013-09-21 15:36:00,
2013-09-21 10:37:00,60.3,51.2,29.91,NNW,329,5.0,10.0,72,0.00,,,0.00,Wunderground v.1.15,2013-09-21 15:37:00,
2013-09-21 10:38:00,60.4,50.6,29.91,NNW,336,5.0,10.0,70,0.00,,,0.00,Wunderground v.1.15,2013-09-21 15:38:00,
2013-09-21 10:39:00,60.4,49.8,29.91,NNW,328,6.0,10.0,68,0.00,,,0.00,Wunderground v.1.15,2013-09-21 15:39:00,
2013-09-21 10:40:00,60.4,50.2,29.91,West,281,5.0,5.0,69,0.00,,,0.00,Wunderground v.1.15,2013-09-21 15:40:00,
2013-09-21 10:43:00,60.5,50.7,29.91,NNW,337,5.0,11.0,70,0.00,,,0.00,Wunderground v.1.15,2013-09-21 15:43:00,
2013-09-21 10:46:00,60.7,50.9,29.91,NW,312,6.0,11.0,70,0.00,,,0.00,Wunderground v.1.15,2013-09-21 15:46:00,
2013-09-21 10:47:00,60.7,50.9,29.92,NW,313,6.0,11.0,70,0.00,,,0.00,Wunderground v.1.15,2013-09-21 15:47:00,
2013-09-21 10:50:00,61.0,50.8,29.92,NW,319,4.0,4.0,69,0.00,,,0.00,Wunderground v.1.15,2013-09-21 15:50:00,
2013-09-21 10:53:00,61.3,51.0,29.91,NW,321,4.0,4.0,69,0.00,,,0.00,Wunderground v.1.15,2013-09-21 15:53:00,
2013-09-21 10:54:00,61.3,51.4,29.91,NNW,332,3.0,6.0,70,0.00,,,0.00,Wunderground v.1.15,2013-09-21 15:54:00,
2013-09-21 10:59:00,61.7,50.6,29.91,NNW,344,4.0,10.0,67,0.00,,,0.00,Wunderground v.1.15,2013-09-21 15:59:00,
2013-09-21 11:00:00,61.7,50.6,29.91,NNE,32,5.0,7.0,67,0.00,,,0.00,Wunderground v.1.15,2013-09-21 16:00:00,
2013-09-21 11:01:00,61.8,49.9,29.91,North,11,5.0,7.0,65,0.00,,,0.00,Wunderground v.1.15,2013-09-21 16:01:00,
2013-09-21 11:04:00,61.7,49.8,29.91,NW,309,6.0,11.0,65,0.00,,,0.00,Wunderground v.1.15,2013-09-21 16:04:00,
2013-09-21 11:05:00,61.7,49.8,29.91,NNW,330,6.0,11.0,65,0.00,,,0.00,Wunderground v.1.15,2013-09-21 16:05:00,
2013-09-21 11:09:00,61.8,51.5,29.91,NNW,337,5.0,11.0,69,0.00,,,0.00,Wunderground v.1.15,2013-09-21 16:09:00,
2013-09-21 11:12:00,61.8,49.9,29.91,West,277,4.0,9.0,65,0.00,,,0.00,Wunderground v.1.15,2013-09-21 16:12:00,
2013-09-21 11:14:00,61.9,50.0,29.91,NNW,328,4.0,9.0,65,0.00,,,0.00,Wunderground v.1.15,2013-09-21 16:14:00,
2013-09-21 11:16:00,61.8,49.5,29.91,NW,324,4.0,9.0,64,0.00,,,0.00,Wunderground v.1.15,2013-09-21 16:16:00,
2013-09-21 11:17:00,61.9,49.6,29.91,WNW,293,4.0,10.0,64,0.00,,,0.00,Wunderground v.1.15,2013-09-21 16:17:00,
2013-09-21 11:20:00,61.9,49.2,29.91,NNW,333,5.0,5.0,63,0.00,,,0.00,Wunderground v.1.15,2013-09-21 16:20:00,
2013-09-21 11:23:00,61.9,49.2,29.91,NNW,339,5.0,6.0,63,0.00,,,0.00,Wunderground v.1.15,2013-09-21 16:23:00,
2013-09-21 11:24:00,62.0,49.7,29.91,NNW,330,5.0,6.0,64,0.00,,,0.00,Wunderground v.1.15,2013-09-21 16:24:00,
2013-09-21 11:28:00,62.4,50.5,29.91,NNW,346,5.0,6.0,65,0.00,,,0.00,Wunderground v.1.15,2013-09-21 16:28:00,
2013-09-21 11:30:00,62.7,49.9,29.91,WNW,302,5.0,6.0,63,0.00,,,0.00,Wunderground v.1.15,2013-09-21 16:30:00,
2013-09-21 11:32:00,62.8,50.4,29.91,NW,323,4.0,6.0,64,0.00,,,0.00,Wunderground v.1.15,2013-09-21 16:32:00,
2013-09-21 11:35:00,62.8,49.6,29.90,NW,321,4.0,6.0,62,0.00,,,0.00,Wunderground v.1.15,2013-09-21 16:35:00,
2013-09-21 11:39:00,62.8,50.0,29.90,NNW,336,5.0,8.0,63,0.00,,,0.00,Wunderground v.1.15,2013-09-21 16:39:00,
2013-09-21 11:41:00,63.1,49.9,29.91,NNW,339,5.0,6.0,62,0.00,,,0.00,Wunderground v.1.15,2013-09-21 16:41:00,
2013-09-21 11:43:00,63.1,49.9,29.91,NNW,334,5.0,6.0,62,0.00,,,0.00,Wunderground v.1.15,2013-09-21 16:43:00,
2013-09-21 11:45:00,63.1,49.9,29.91,NNW,329,4.0,6.0,62,0.00,,,0.00,Wunderground v.1.15,2013-09-21 16:45:00,
2013-09-21 11:47:00,62.9,49.7,29.91,NNW,327,4.0,6.0,62,0.00,,,0.00,Wunderground v.1.15,2013-09-21 16:47:00,
2013-09-21 11:49:00,62.9,49.7,29.91,NNE,19,4.0,7.0,62,0.00,,,0.00,Wunderground v.1.15,2013-09-21 16:49:00,
2013-09-21 11:51:00,62.7,49.5,29.91,North,11,4.0,4.0,62,0.00,,,0.00,Wunderground v.1.15,2013-09-21 16:51:00,
2013-09-21 11:52:00,62.8,50.0,29.91,NNW,342,3.0,4.0,63,0.00,,,0.00,Wunderground v.1.15,2013-09-21 16:52:00,
2013-09-21 11:54:00,62.7,49.9,29.91,NNW,339,4.0,4.0,63,0.00,,,0.00,Wunderground v.1.15,2013-09-21 16:54:00,
2013-09-21 11:56:00,62.6,49.8,29.91,WSW,240,4.0,4.0,63,0.00,,,0.00,Wunderground v.1.15,2013-09-21 16:56:00,
2013-09-21 11:57:00,62.6,49.8,29.91,WSW,241,4.0,4.0,63,0.00,,,0.00,Wunderground v.1.15,2013-09-21 16:57:00,
2013-09-21 11:59:00,62.5,49.7,29.91,NW,310,4.0,6.0,63,0.00,,,0.00,Wunderground v.1.15,2013-09-21 16:59:00,
2013-09-21 12:00:00,62.6,50.2,29.91,NNW,344,4.0,5.0,64,0.00,,,0.00,Wunderground v.1.15,2013-09-21 17:00:00,
2013-09-21 12:03:00,62.6,49.8,29.91,NNW,334,4.0,5.0,63,0.00,,,0.00,Wunderground v.1.15,2013-09-21 17:03:00,
2013-09-21 12:06:00,62.6,49.4,29.91,NNW,336,4.0,8.0,62,0.00,,,0.00,Wunderground v.1.15,2013-09-21 17:06:00,
2013-09-21 12:07:00,62.6,49.4,29.91,NNW,338,4.0,8.0,62,0.00,,,0.00,Wunderground v.1.15,2013-09-21 17:07:00,
2013-09-21 12:08:00,62.5,49.3,29.91,NNW,335,4.0,8.0,62,0.00,,,0.00,Wunderground v.1.15,2013-09-21 17:08:00,
2013-09-21 12:10:00,62.4,49.2,29.91,NNW,334,4.0,5.0,62,0.00,,,0.00,Wunderground v.1.15,2013-09-21 17:10:00,
2013-09-21 12:13:00,62.5,49.7,29.90,NNW,346,4.0,6.0,63,0.00,,,0.00,Wunderground v.1.15,2013-09-21 17:13:00,
2013-09-21 12:16:00,62.7,49.5,29.91,NW,314,4.0,6.0,62,0.00,,,0.00,Wunderground v.1.15,2013-09-21 17:16:00,
2013-09-21 12:20:00,62.7,49.5,29.91,NNW,339,5.0,9.0,62,0.00,,,0.00,Wunderground v.1.15,2013-09-21 17:20:00,
2013-09-21 12:22:00,62.9,50.1,29.90,NNW,343,5.0,9.0,63,0.00,,,0.00,Wunderground v.1.15,2013-09-21 17:22:00,
2013-09-21 12:23:00,63.0,50.2,29.90,NNW,348,5.0,9.0,63,0.00,,,0.00,Wunderground v.1.15,2013-09-21 17:23:00,
2013-09-21 12:27:00,63.5,50.7,29.90,NNW,337,5.0,9.0,63,0.00,,,0.00,Wunderground v.1.15,2013-09-21 17:27:00,
2013-09-21 12:28:00,63.6,50.3,29.90,NNW,337,5.0,9.0,62,0.00,,,0.00,Wunderground v.1.15,2013-09-21 17:28:00,
2013-09-21 12:29:00,63.6,50.3,29.90,NNW,338,4.0,9.0,62,0.00,,,0.00,Wunderground v.1.15,2013-09-21 17:29:00,
2013-09-21 12:30:00,63.7,50.0,29.90,NNW,338,5.0,5.0,61,0.00,,,0.00,Wunderground v.1.15,2013-09-21 17:30:00,
2013-09-21 12:35:00,63.9,51.1,29.90,WNW,289,4.0,5.0,63,0.00,,,0.00,Wunderground v.1.15,2013-09-21 17:35:00,
2013-09-21 12:37:00,64.0,50.3,29.90,West,270,4.0,5.0,61,0.00,,,0.00,Wunderground v.1.15,2013-09-21 17:37:00,
2013-09-21 12:38:00,64.0,50.3,29.90,NNW,342,4.0,5.0,61,0.00,,,0.00,Wunderground v.1.15,2013-09-21 17:38:00,
2013-09-21 12:40:00,63.9,50.2,29.90,NNW,338,4.0,4.0,61,0.00,,,0.00,Wunderground v.1.15,2013-09-21 17:40:00,
2013-09-21 12:42:00,63.9,50.2,29.90,North,11,4.0,4.0,61,0.00,,,0.00,Wunderground v.1.15,2013-09-21 17:42:00,
2013-09-21 12:43:00,64.0,50.3,29.90,North,5,4.0,4.0,61,0.00,,,0.00,Wunderground v.1.15,2013-09-21 17:43:00,
2013-09-21 12:44:00,64.0,50.3,29.90,North,355,4.0,5.0,61,0.00,,,0.00,Wunderground v.1.15,2013-09-21 17:44:00,
2013-09-21 12:48:00,64.1,49.9,29.90,North,9,5.0,6.0,60,0.00,,,0.00,Wunderground v.1.15,2013-09-21 17:48:00,
2013-09-21 12:49:00,64.1,49.5,29.90,NW,315,5.0,6.0,59,0.00,,,0.00,Wunderground v.1.15,2013-09-21 17:49:00,
2013-09-21 12:50:00,64.0,49.8,29.90,NNW,340,5.0,5.0,60,0.00,,,0.00,Wunderground v.1.15,2013-09-21 17:50:00,
2013-09-21 12:51:00,63.9,49.7,29.91,NNW,331,5.0,5.0,60,0.00,,,0.00,Wunderground v.1.15,2013-09-21 17:51:00,
2013-09-21 12:52:00,63.9,50.2,29.91,WNW,284,5.0,5.0,61,0.00,,,0.00,Wunderground v.1.15,2013-09-21 17:52:00,
2013-09-21 12:54:00,64.0,49.8,29.90,NNW,329,5.0,5.0,60,0.00,,,0.00,Wunderground v.1.15,2013-09-21 17:54:00,
2013-09-21 12:55:00,64.0,49.8,29.90,NNW,329,5.0,5.0,60,0.00,,,0.00,Wunderground v.1.15,2013-09-21 17:55:00,
2013-09-21 12:56:00,64.1,49.9,29.90,NW,320,4.0,5.0,60,0.00,,,0.00,Wunderground v.1.15,2013-09-21 17:56:00,
2013-09-21 12:57:00,64.1,49.9,29.90,NW,322,4.0,5.0,60,0.00,,,0.00,Wunderground v.1.15,2013-09-21 17:57:00,
2013-09-21 12:59:00,64.5,51.2,29.90,North,11,3.0,11.0,62,0.00,,,0.00,Wunderground v.1.15,2013-09-21 17:59:00,
2013-09-21 13:02:00,64.6,49.5,29.91,North,350,4.0,4.0,58,0.00,,,0.00,Wunderground v.1.15,2013-09-21 18:02:00,
2013-09-21 13:03:00,64.6,49.5,29.90,NNW,338,4.0,4.0,58,0.00,,,0.00,Wunderground v.1.15,2013-09-21 18:03:00,
2013-09-21 13:04:00,64.6,49.9,29.90,NNW,338,4.0,4.0,59,0.00,,,0.00,Wunderground v.1.15,2013-09-21 18:04:00,
2013-09-21 13:05:00,64.6,50.4,29.91,NNW,338,4.0,7.0,60,0.00,,,0.00,Wunderground v.1.15,2013-09-21 18:05:00,
2013-09-21 13:08:00,64.9,50.7,29.90,NNW,344,5.0,8.0,60,0.00,,,0.00,Wunderground v.1.15,2013-09-21 18:08:00,
2013-09-21 13:10:00,65.1,50.4,29.90,NNW,327,5.0,5.0,59,0.00,,,0.00,Wunderground v.1.15,2013-09-21 18:10:00,
2013-09-21 13:14:00,64.9,49.3,29.91,NW,315,5.0,9.0,57,0.00,,,0.00,Wunderground v.1.15,2013-09-21 18:14:00,
2013-09-21 13:17:00,64.7,49.6,29.90,NNW,341,5.0,9.0,58,0.00,,,0.00,Wunderground v.1.15,2013-09-21 18:17:00,
2013-09-21 13:21:00,64.7,49.1,29.90,NW,313,5.0,5.0,57,0.00,,,0.00,Wunderground v.1.15,2013-09-21 18:21:00,
2013-09-21 13:22:00,64.7,48.6,29.90,NNW,332,5.0,5.0,56,0.00,,,0.00,Wunderground v.1.15,2013-09-21 18:22:00,
2013-09-21 13:24:00,64.6,49.9,29.90,NNW,330,5.0,5.0,59,0.00,,,0.00,Wunderground v.1.15,2013-09-21 18:24:00,
2013-09-21 13:29:00,65.0,50.8,29.90,North,355,5.0,7.0,60,0.00,,,0.00,Wunderground v.1.15,2013-09-21 18:29:00,
2013-09-21 13:31:00,65.3,50.6,29.90,NNW,340,5.0,5.0,59,0.00,,,0.00,Wunderground v.1.15,2013-09-21 18:31:00,
2013-09-21 13:32:00,65.3,50.6,29.90,NNW,341,5.0,5.0,59,0.00,,,0.00,Wunderground v.1.15,2013-09-21 18:32:00,
2013-09-21 13:33:00,65.4,50.7,29.90,NNW,346,5.0,5.0,59,0.00,,,0.00,Wunderground v.1.15,2013-09-21 18:33:00,
2013-09-21 13:34:00,65.5,50.3,29.90,NNW,329,5.0,5.0,58,0.00,,,0.00,Wunderground v.1.15,2013-09-21 18:34:00,
2013-09-21 13:38:00,65.7,49.6,29.90,NNE,16,5.0,9.0,56,0.00,,,0.00,Wunderground v.1.15,2013-09-21 18:38:00,
2013-09-21 13:39:00,65.7,49.1,29.90,North,355,5.0,9.0,55,0.00,,,0.00,Wunderground v.1.15,2013-09-21 18:39:00,
2013-09-21 13:40:00,65.7,50.5,29.89,NW,311,5.0,6.0,58,0.00,,,0.00,Wunderground v.1.15,2013-09-21 18:40:00,
2013-09-21 13:41:00,65.7,50.5,29.89,NW,309,5.0,6.0,58,0.00,,,0.00,Wunderground v.1.15,2013-09-21 18:41:00,
2013-09-21 13:45:00,65.9,50.7,29.90,NNW,338,5.0,7.0,58,0.00,,,0.00,Wunderground v.1.15,2013-09-21 18:45:00,
2013-09-21 13:47:00,66.0,50.3,29.90,NNW,333,5.0,11.0,57,0.00,,,0.00,Wunderground v.1.15,2013-09-21 18:47:00,
2013-09-21 13:48:00,66.0,50.3,29.90,North,350,5.0,11.0,57,0.00,,,0.00,Wunderground v.1.15,2013-09-21 18:48:00,
2013-09-21 13:51:00,66.0,50.3,29.90,North,355,5.0,10.0,57,0.00,,,0.00,Wunderground v.1.15,2013-09-21 18:51:00,
2013-09-21 13:53:00,66.0,50.8,29.90,NW,319,6.0,11.0,58,0.00,,,0.00,Wunderground v.1.15,2013-09-21 18:53:00,
2013-09-21 13:55:00,66.1,50.4,29.89,NNE,14,6.0,11.0,57,0.00,,,0.00,Wunderground v.1.15,2013-09-21 18:55:00,
2013-09-21 13:57:00,66.0,49.8,29.89,North,355,6.0,11.0,56,0.00,,,0.00,Wunderground v.1.15,2013-09-21 18:57:00,
2013-09-21 14:00:00,65.9,50.2,29.89,NNW,348,5.0,7.0,57,0.00,,,0.00,Wunderground v.1.15,2013-09-21 19:00:00,
2013-09-21 14:01:00,65.9,51.2,29.89,NNW,342,6.0,7.0,59,0.00,,,0.00,Wunderground v.1.15,2013-09-21 19:01:00,
2013-09-21 14:03:00,65.9,49.8,29.89,NNW,329,5.0,7.0,56,0.00,,,0.00,Wunderground v.1.15,2013-09-21 19:03:00,
2013-09-21 14:05:00,65.8,49.7,29.89,NNW,331,5.0,7.0,56,0.00,,,0.00,Wunderground v.1.15,2013-09-21 19:05:00,
2013-09-21 14:06:00,65.8,50.6,29.89,NNW,331,5.0,7.0,58,0.00,,,0.00,Wunderground v.1.15,2013-09-21 19:06:00,
2013-09-21 14:07:00,65.7,50.5,29.89,WNW,303,4.0,7.0,58,0.00,,,0.00,Wunderground v.1.15,2013-09-21 19:07:00,
2013-09-21 14:09:00,65.8,52.9,29.89,WNW,291,4.0,7.0,63,0.00,,,0.00,Wunderground v.1.15,2013-09-21 19:09:00,
2013-09-21 14:12:00,66.1,51.4,29.89,NNW,331,4.0,6.0,59,0.00,,,0.00,Wunderground v.1.15,2013-09-21 19:12:00,
2013-09-21 14:13:00,66.1,51.4,29.90,NNW,337,4.0,9.0,59,0.00,,,0.00,Wunderground v.1.15,2013-09-21 19:13:00,
2013-09-21 14:15:00,66.3,50.1,29.90,NNW,328,4.0,9.0,56,0.00,,,0.00,Wunderground v.1.15,2013-09-21 19:15:00,
2013-09-21 14:19:00,66.3,51.1,29.89,WNW,301,6.0,9.0,58,0.00,,,0.00,Wunderground v.1.15,2013-09-21 19:19:00,
2013-09-21 14:21:00,66.3,50.6,29.89,NNW,348,5.0,7.0,57,0.00,,,0.00,Wunderground v.1.15,2013-09-21 19:21:00,
2013-09-21 14:22:00,66.3,50.6,29.89,WNW,300,5.0,7.0,57,0.00,,,0.00,Wunderground v.1.15,2013-09-21 19:22:00,
2013-09-21 14:23:00,66.3,49.6,29.89,NNW,339,6.0,7.0,55,0.00,,,0.00,Wunderground v.1.15,2013-09-21 19:23:00,
2013-09-21 14:25:00,66.1,49.9,29.89,NW,315,6.0,7.0,56,0.00,,,0.00,Wunderground v.1.15,2013-09-21 19:25:00,
2013-09-21 14:27:00,65.9,49.8,29.89,NW,324,6.0,7.0,56,0.00,,,0.00,Wunderground v.1.15,2013-09-21 19:27:00,
2013-09-21 14:30:00,65.7,50.0,29.89,NW,304,6.0,6.0,57,0.00,,,0.00,Wunderground v.1.15,2013-09-21 19:30:00,
2013-09-21 14:31:00,65.7,51.0,29.89,WNW,289,6.0,6.0,59,0.00,,,0.00,Wunderground v.1.15,2013-09-21 19:31:00,
2013-09-21 14:35:00,65.7,51.0,29.89,North,355,5.0,9.0,59,0.00,,,0.00,Wunderground v.1.15,2013-09-21 19:35:00,
2013-09-21 14:36:00,65.6,50.4,29.89,NNW,331,5.0,9.0,58,0.00,,,0.00,Wunderground v.1.15,2013-09-21 19:36:00,
2013-09-21 14:37:00,65.6,50.4,29.89,NNW,331,5.0,9.0,58,0.00,,,0.00,Wunderground v.1.15,2013-09-21 19:37:00,
2013-09-21 14:39:00,65.6,51.3,29.89,NNW,334,4.0,9.0,60,0.00,,,0.00,Wunderground v.1.15,2013-09-21 19:39:00,
2013-09-21 14:42:00,65.8,51.1,29.89,SW,231,4.0,9.0,59,0.00,,,0.00,Wunderground v.1.15,2013-09-21 19:42:00,
2013-09-21 14:43:00,65.8,52.0,29.89,South,186,4.0,9.0,61,0.00,,,0.00,Wunderground v.1.15,2013-09-21 19:43:00,
2013-09-21 14:44:00,66.0,51.7,29.89,SSW,198,4.0,9.0,60,0.00,,,0.00,Wunderground v.1.15,2013-09-21 19:44:00,
2013-09-21 14:46:00,66.3,50.6,29.89,NW,309,3.0,12.0,57,0.00,,,0.00,Wunderground v.1.15,2013-09-21 19:46:00,
2013-09-21 14:47:00,66.4,50.7,29.89,NNW,340,3.0,12.0,57,0.00,,,0.00,Wunderground v.1.15,2013-09-21 19:47:00,
2013-09-21 14:49:00,66.5,50.8,29.89,NNW,328,4.0,12.0,57,0.00,,,0.00,Wunderground v.1.15,2013-09-21 19:49:00,
2013-09-21 14:52:00,66.5,50.8,29.89,NW,318,4.0,4.0,57,0.00,,,0.00,Wunderground v.1.15,2013-09-21 19:52:00,
2013-09-21 14:55:00,66.6,50.9,29.89,WNW,302,5.0,5.0,57,0.00,,,0.00,Wunderground v.1.15,2013-09-21 19:55:00,
2013-09-21 14:56:00,66.7,51.5,29.89,NW,317,5.0,5.0,58,0.00,,,0.00,Wunderground v.1.15,2013-09-21 19:56:00,
2013-09-21 14:58:00,66.8,51.1,29.89,NNW,336,4.0,5.0,57,0.00,,,0.00,Wunderground v.1.15,2013-09-21 19:58:00,
2013-09-21 15:00:00,67.0,50.8,29.89,NNW,328,3.0,5.0,56,0.00,,,0.00,Wunderground v.1.15,2013-09-21 20:00:00,
2013-09-21 15:01:00,67.0,49.8,29.89,WNW,299,3.0,5.0,54,0.00,,,0.00,Wunderground v.1.15,2013-09-21 20:01:00,
2013-09-21 15:02:00,67.0,49.8,29.89,WNW,300,3.0,5.0,54,0.00,,,0.00,Wunderground v.1.15,2013-09-21 20:02:00,
2013-09-21 15:05:00,66.9,50.2,29.89,NNW,329,3.0,8.0,55,0.00,,,0.00,Wunderground v.1.15,2013-09-21 20:05:00,
2013-09-21 15:08:00,67.0,50.8,29.89,NNW,340,4.0,11.0,56,0.00,,,0.00,Wunderground v.1.15,2013-09-21 20:08:00,
2013-09-21 15:09:00,66.9,50.2,29.89,NW,319,4.0,11.0,55,0.00,,,0.00,Wunderground v.1.15,2013-09-21 20:09:00,
2013-09-21 15:10:00,66.7,50.0,29.89,NNW,339,4.0,4.0,55,0.00,,,0.00,Wunderground v.1.15,2013-09-21 20:10:00,
2013-09-21 15:13:00,66.4,50.2,29.88,North,350,5.0,5.0,56,0.00,,,0.00,Wunderground v.1.15,2013-09-21 20:13:00,
2013-09-21 15:14:00,66.3,50.6,29.88,NNW,338,4.0,9.0,57,0.00,,,0.00,Wunderground v.1.15,2013-09-21 20:14:00,
2013-09-21 15:15:00,66.3,50.6,29.88,NNW,346,4.0,9.0,57,0.00,,,0.00,Wunderground v.1.15,2013-09-21 20:15:00,
2013-09-21 15:18:00,66.3,50.6,29.88,NNW,327,4.0,9.0,57,0.00,,,0.00,Wunderground v.1.15,2013-09-21 20:18:00,
2013-09-21 15:20:00,66.3,50.1,29.88,NNW,331,4.0,4.0,56,0.00,,,0.00,Wunderground v.1.15,2013-09-21 20:20:00,
2013-09-21 15:21:00,66.3,49.2,29.88,West,281,4.0,11.0,54,0.00,,,0.00,Wunderground v.1.15,2013-09-21 20:21:00,
2013-09-21 15:24:00,66.3,50.1,29.88,NNW,347,5.0,11.0,56,0.00,,,0.00,Wunderground v.1.15,2013-09-21 20:24:00,
2013-09-21 15:25:00,66.3,50.6,29.88,NNW,344,5.0,11.0,57,0.00,,,0.00,Wunderground v.1.15,2013-09-21 20:25:00,
2013-09-21 15:27:00,66.3,50.6,29.88,NNW,338,5.0,11.0,57,0.00,,,0.00,Wunderground v.1.15,2013-09-21 20:27:00,
2013-09-21 15:32:00,66.4,50.2,29.88,NW,321,4.0,4.0,56,0.00,,,0.00,Wunderground v.1.15,2013-09-21 20:32:00,
2013-09-21 15:35:00,66.4,51.2,29.88,NNW,347,3.0,8.0,58,0.00,,,0.00,Wunderground v.1.15,2013-09-21 20:35:00,
2013-09-21 15:37:00,66.5,49.8,29.88,NW,323,4.0,10.0,55,0.00,,,0.00,Wunderground v.1.15,2013-09-21 20:37:00,
2013-09-21 15:39:00,66.5,49.8,29.88,North,355,5.0,10.0,55,0.00,,,0.00,Wunderground v.1.15,2013-09-21 20:39:00,
2013-09-21 15:41:00,66.4,49.7,29.88,NNW,330,5.0,8.0,55,0.00,,,0.00,Wunderground v.1.15,2013-09-21 20:41:00,
2013-09-21 15:42:00,66.4,50.2,29.88,NW,304,5.0,8.0,56,0.00,,,0.00,Wunderground v.1.15,2013-09-21 20:42:00,
2013-09-21 15:45:00,66.4,49.7,29.88,NNW,334,6.0,8.0,55,0.00,,,0.00,Wunderground v.1.15,2013-09-21 20:45:00,
2013-09-21 15:46:00,66.3,49.6,29.88,NNW,344,6.0,8.0,55,0.00,,,0.00,Wunderground v.1.15,2013-09-21 20:46:00,
2013-09-21 15:47:00,66.2,49.6,29.88,NNW,344,7.0,8.0,55,0.00,,,0.00,Wunderground v.1.15,2013-09-21 20:47:00,
2013-09-21 15:50:00,66.1,50.4,29.88,NW,309,6.0,6.0,57,0.00,,,0.00,Wunderground v.1.15,2013-09-21 20:50:00,
2013-09-21 15:51:00,66.1,49.9,29.87,NNW,338,6.0,6.0,56,0.00,,,0.00,Wunderground v.1.15,2013-09-21 20:51:00,
2013-09-21 15:52:00,66.1,49.9,29.87,NW,312,6.0,6.0,56,0.00,,,0.00,Wunderground v.1.15,2013-09-21 20:52:00,
2013-09-21 15:57:00,66.1,49.5,29.87,NNW,332,5.0,10.0,55,0.00,,,0.00,Wunderground v.1.15,2013-09-21 20:57:00,
2013-09-21 15:59:00,66.1,50.4,29.88,NNW,340,5.0,10.0,57,0.00,,,0.00,Wunderground v.1.15,2013-09-21 20:59:00,
2013-09-21 16:00:00,66.1,50.4,29.88,NNW,333,5.0,5.0,57,0.00,,,0.00,Wunderground v.1.15,2013-09-21 21:00:00,
2013-09-21 16:01:00,66.2,50.0,29.88,NNW,331,4.0,5.0,56,0.00,,,0.00,Wunderground v.1.15,2013-09-21 21:01:00,
2013-09-21 16:02:00,66.2,50.5,29.88,North,360,4.0,5.0,57,0.00,,,0.00,Wunderground v.1.15,2013-09-21 21:02:00,
2013-09-21 16:03:00,66.3,50.6,29.88,NNW,338,4.0,5.0,57,0.00,,,0.00,Wunderground v.1.15,2013-09-21 21:03:00,
2013-09-21 16:05:00,66.3,50.1,29.88,NNW,338,4.0,12.0,56,0.00,,,0.00,Wunderground v.1.15,2013-09-21 21:05:00,
2013-09-21 16:08:00,66.1,49.9,29.88,NNE,19,5.0,12.0,56,0.00,,,0.00,Wunderground v.1.15,2013-09-21 21:08:00,
2013-09-21 16:09:00,66.1,50.4,29.88,NNE,15,5.0,12.0,57,0.00,,,0.00,Wunderground v.1.15,2013-09-21 21:09:00,
2013-09-21 16:13:00,66.1,49.9,29.88,NW,326,6.0,6.0,56,0.00,,,0.00,Wunderground v.1.15,2013-09-21 21:13:00,
2013-09-21 16:17:00,66.2,50.5,29.87,NNW,346,5.0,6.0,57,0.00,,,0.00,Wunderground v.1.15,2013-09-21 21:17:00,
2013-09-21 16:18:00,66.2,50.5,29.87,North,349,4.0,6.0,57,0.00,,,0.00,Wunderground v.1.15,2013-09-21 21:18:00,
2013-09-21 16:19:00,66.3,50.6,29.88,NNW,346,4.0,6.0,57,0.00,,,0.00,Wunderground v.1.15,2013-09-21 21:19:00,
2013-09-21 16:20:00,66.3,50.1,29.87,NNW,334,4.0,5.0,56,0.00,,,0.00,Wunderground v.1.15,2013-09-21 21:20:00,
2013-09-21 16:21:00,66.3,50.1,29.88,NNW,332,4.0,7.0,56,0.00,,,0.00,Wunderground v.1.15,2013-09-21 21:21:00,
2013-09-21 16:24:00,66.3,50.6,29.88,NE,50,4.0,7.0,57,0.00,,,0.00,Wunderground v.1.15,2013-09-21 21:24:00,
2013-09-21 16:25:00,66.3,50.1,29.88,ENE,59,4.0,7.0,56,0.00,,,0.00,Wunderground v.1.15,2013-09-21 21:25:00,
2013-09-21 16:26:00,66.3,50.6,29.88,North,350,3.0,7.0,57,0.00,,,0.00,Wunderground v.1.15,2013-09-21 21:26:00,
2013-09-21 16:27:00,66.4,50.7,29.88,North,360,3.0,7.0,57,0.00,,,0.00,Wunderground v.1.15,2013-09-21 21:27:00,
2013-09-21 16:31:00,66.3,49.6,29.88,NNW,334,4.0,4.0,55,0.00,,,0.00,Wunderground v.1.15,2013-09-21 21:31:00,
2013-09-21 16:32:00,66.3,49.6,29.88,NNW,334,4.0,4.0,55,0.00,,,0.00,Wunderground v.1.15,2013-09-21 21:32:00,
2013-09-21 16:36:00,66.1,49.9,29.87,NW,320,4.0,6.0,56,0.00,,,0.00,Wunderground v.1.15,2013-09-21 21:36:00,
2013-09-21 16:37:00,66.1,49.9,29.87,NNW,348,4.0,6.0,56,0.00,,,0.00,Wunderground v.1.15,2013-09-21 21:37:00,
2013-09-21 16:38:00,66.1,49.9,29.87,NW,309,4.0,6.0,56,0.00,,,0.00,Wunderground v.1.15,2013-09-21 21:38:00,
2013-09-21 16:42:00,66.1,49.5,29.88,NNW,331,3.0,3.0,55,0.00,,,0.00,Wunderground v.1.15,2013-09-21 21:42:00,
2013-09-21 16:44:00,66.1,49.9,29.87,NNW,329,3.0,3.0,56,0.00,,,0.00,Wunderground v.1.15,2013-09-21 21:44:00,
2013-09-21 16:46:00,66.1,49.9,29.88,NNW,332,3.0,4.0,56,0.00,,,0.00,Wunderground v.1.15,2013-09-21 21:46:00,
2013-09-21 16:47:00,66.1,49.9,29.88,NNW,332,3.0,4.0,56,0.00,,,0.00,Wunderground v.1.15,2013-09-21 21:47:00,
2013-09-21 16:48:00,66.1,49.9,29.87,NNW,333,3.0,4.0,56,0.00,,,0.00,Wunderground v.1.15,2013-09-21 21:48:00,
2013-09-21 16:49:00,66.1,49.9,29.88,NNW,338,3.0,4.0,56,0.00,,,0.00,Wunderground v.1.15,2013-09-21 21:49:00,
2013-09-21 16:52:00,66.1,49.9,29.88,NNW,330,3.0,4.0,56,0.00,,,0.00,Wunderground v.1.15,2013-09-21 21:52:00,
2013-09-21 16:54:00,66.0,49.4,29.88,NNW,329,4.0,4.0,55,0.00,,,0.00,Wunderground v.1.15,2013-09-21 21:54:00,
2013-09-21 16:55:00,65.9,49.8,29.88,NNW,340,4.0,4.0,56,0.00,,,0.00,Wunderground v.1.15,2013-09-21 21:55:00,
2013-09-21 16:56:00,65.9,49.8,29.88,NNW,341,4.0,4.0,56,0.00,,,0.00,Wunderground v.1.15,2013-09-21 21:56:00,
2013-09-21 16:58:00,65.8,49.7,29.87,NW,323,4.0,6.0,56,0.00,,,0.00,Wunderground v.1.15,2013-09-21 21:58:00,
2013-09-21 17:01:00,65.8,50.1,29.87,NNW,347,4.0,4.0,57,0.00,,,0.00,Wunderground v.1.15,2013-09-21 22:01:00,
2013-09-21 17:02:00,65.9,50.2,29.88,NNW,347,3.0,4.0,57,0.00,,,0.00,Wunderground v.1.15,2013-09-21 22:02:00,
2013-09-21 17:03:00,65.9,50.2,29.87,NNW,347,3.0,4.0,57,0.00,,,0.00,Wunderground v.1.15,2013-09-21 22:03:00,
2013-09-21 17:06:00,65.8,49.2,29.87,NW,321,3.0,4.0,55,0.00,,,0.00,Wunderground v.1.15,2013-09-21 22:06:00,
2013-09-21 17:07:00,65.8,49.2,29.87,NW,322,3.0,4.0,55,0.00,,,0.00,Wunderground v.1.15,2013-09-21 22:07:00,
2013-09-21 17:10:00,65.6,49.0,29.87,NNW,340,3.0,3.0,55,0.00,,,0.00,Wunderground v.1.15,2013-09-21 22:10:00,
2013-09-21 17:13:00,65.5,49.4,29.88,NNW,341,4.0,6.0,56,0.00,,,0.00,Wunderground v.1.15,2013-09-21 22:13:00,
2013-09-21 17:15:00,65.4,48.8,29.88,NNW,331,4.0,6.0,55,0.00,,,0.00,Wunderground v.1.15,2013-09-21 22:15:00,
2013-09-21 17:16:00,65.4,49.3,29.88,NNW,338,4.0,6.0,56,0.00,,,0.00,Wunderground v.1.15,2013-09-21 22:16:00,
2013-09-21 17:20:00,65.2,49.6,29.88,NNW,333,4.0,4.0,57,0.00,,,0.00,Wunderground v.1.15,2013-09-21 22:20:00,
2013-09-21 17:21:00,65.2,49.1,29.88,NNW,335,4.0,5.0,56,0.00,,,0.00,Wunderground v.1.15,2013-09-21 22:21:00,
2013-09-21 17:22:00,65.2,49.6,29.88,NNW,338,4.0,5.0,57,0.00,,,0.00,Wunderground v.1.15,2013-09-21 22:22:00,
2013-09-21 17:24:00,65.1,49.5,29.88,NNW,341,4.0,5.0,57,0.00,,,0.00,Wunderground v.1.15,2013-09-21 22:24:00,
2013-09-21 17:27:00,65.1,50.0,29.87,NW,320,3.0,5.0,58,0.00,,,0.00,Wunderground v.1.15,2013-09-21 22:27:00,
2013-09-21 17:30:00,65.1,50.0,29.87,NW,319,2.0,2.0,58,0.00,,,0.00,Wunderground v.1.15,2013-09-21 22:30:00,
2013-09-21 17:32:00,65.2,50.5,29.87,NW,309,2.0,3.0,59,0.00,,,0.00,Wunderground v.1.15,2013-09-21 22:32:00,
2013-09-21 17:33:00,65.2,50.5,29.87,NW,309,1.0,3.0,59,0.00,,,0.00,Wunderground v.1.15,2013-09-21 22:33:00,
2013-09-21 17:34:00,65.3,50.6,29.87,NW,313,1.0,3.0,59,0.00,,,0.00,Wunderground v.1.15,2013-09-21 22:34:00,
2013-09-21 17:36:00,65.3,50.1,29.87,WNW,284,1.0,4.0,58,0.00,,,0.00,Wunderground v.1.15,2013-09-21 22:36:00,
2013-09-21 17:39:00,65.2,50.5,29.87,NW,319,1.0,4.0,59,0.00,,,0.00,Wunderground v.1.15,2013-09-21 22:39:00,
2013-09-21 17:43:00,65.2,50.0,29.88,NNW,333,2.0,4.0,58,0.00,,,0.00,Wunderground v.1.15,2013-09-21 22:43:00,
2013-09-21 17:44:00,65.1,50.0,29.87,NNW,336,2.0,4.0,58,0.00,,,0.00,Wunderground v.1.15,2013-09-21 22:44:00,
2013-09-21 17:45:00,65.0,49.9,29.87,NNW,335,2.0,4.0,58,0.00,,,0.00,Wunderground v.1.15,2013-09-21 22:45:00,
2013-09-21 17:49:00,64.8,49.7,29.88,WNW,298,2.0,4.0,58,0.00,,,0.00,Wunderground v.1.15,2013-09-21 22:49:00,
2013-09-21 17:50:00,64.8,49.7,29.88,NW,311,2.0,2.0,58,0.00,,,0.00,Wunderground v.1.15,2013-09-21 22:50:00,
2013-09-21 17:54:00,64.6,49.5,29.88,NW,313,2.0,5.0,58,0.00,,,0.00,Wunderground v.1.15,2013-09-21 22:54:00,
2013-09-21 17:55:00,64.6,49.5,29.88,NW,309,2.0,5.0,58,0.00,,,0.00,Wunderground v.1.15,2013-09-21 22:55:00,
2013-09-21 17:56:00,64.5,49.8,29.88,NW,309,2.0,5.0,59,0.00,,,0.00,Wunderground v.1.15,2013-09-21 22:56:00,
2013-09-21 17:58:00,64.4,49.8,29.88,NW,317,2.0,5.0,59,0.00,,,0.00,Wunderground v.1.15,2013-09-21 22:58:00,
2013-09-21 18:00:00,64.2,49.6,29.88,NW,317,2.0,2.0,59,0.00,,,0.00,Wunderground v.1.15,2013-09-21 23:00:00,
2013-09-21 18:01:00,64.1,49.5,29.87,NW,317,2.0,2.0,59,0.00,,,0.00,Wunderground v.1.15,2013-09-21 23:01:00,
2013-09-21 18:05:00,63.8,49.6,29.88,NNW,339,2.0,5.0,60,0.00,,,0.00,Wunderground v.1.15,2013-09-21 23:05:00,
2013-09-21 18:06:00,63.7,49.5,29.88,NNW,331,2.0,5.0,60,0.00,,,0.00,Wunderground v.1.15,2013-09-21 23:06:00,
2013-09-21 18:07:00,63.6,49.5,29.88,NNW,332,2.0,5.0,60,0.00,,,0.00,Wunderground v.1.15,2013-09-21 23:07:00,
2013-09-21 18:08:00,63.6,49.5,29.88,NNW,333,2.0,5.0,60,0.00,,,0.00,Wunderground v.1.15,2013-09-21 23:08:00,
2013-09-21 18:10:00,63.4,49.7,29.88,NNW,333,1.0,3.0,61,0.00,,,0.00,Wunderground v.1.15,2013-09-21 23:10:00,
2013-09-21 18:12:00,63.3,49.6,29.88,NW,324,2.0,5.0,61,0.00,,,0.00,Wunderground v.1.15,2013-09-21 23:12:00,
2013-09-21 18:13:00,63.2,49.1,29.88,NW,324,2.0,5.0,60,0.00,,,0.00,Wunderground v.1.15,2013-09-21 23:13:00,
2013-09-21 18:14:00,63.1,49.4,29.88,NW,324,2.0,5.0,61,0.00,,,0.00,Wunderground v.1.15,2013-09-21 23:14:00,
2013-09-21 18:15:00,63.1,49.4,29.88,NW,324,1.0,5.0,61,0.00,,,0.00,Wunderground v.1.15,2013-09-21 23:15:00,
2013-09-21 18:18:00,62.9,49.2,29.88,NW,324,2.0,5.0,61,0.00,,,0.00,Wunderground v.1.15,2013-09-21 23:18:00,
2013-09-21 18:21:00,62.6,49.4,29.88,NW,324,1.0,1.0,62,0.00,,,0.00,Wunderground v.1.15,2013-09-21 23:21:00,
2013-09-21 18:22:00,62.6,49.4,29.88,NW,324,1.0,1.0,62,0.00,,,0.00,Wunderground v.1.15,2013-09-21 23:22:00,
2013-09-21 18:23:00,62.6,49.4,29.88,NW,324,1.0,1.0,62,0.00,,,0.00,Wunderground v.1.15,2013-09-21 23:23:00,
2013-09-21 18:27:00,62.3,49.5,29.88,NW,324,1.0,2.0,63,0.00,,,0.00,Wunderground v.1.15,2013-09-21 23:27:00,
2013-09-21 18:28:00,62.3,49.1,29.88,NW,324,1.0,2.0,62,0.00,,,0.00,Wunderground v.1.15,2013-09-21 23:28:00,
2013-09-21 18:29:00,62.2,49.4,29.88,NW,324,1.0,2.0,63,0.00,,,0.00,Wunderground v.1.15,2013-09-21 23:29:00,
2013-09-21 18:30:00,62.2,49.4,29.88,NW,324,1.0,1.0,63,0.00,,,0.00,Wunderground v.1.15,2013-09-21 23:30:00,
2013-09-21 18:34:00,61.9,49.6,29.88,NW,324,0.0,1.0,64,0.00,,,0.00,Wunderground v.1.15,2013-09-21 23:34:00,
2013-09-21 18:35:00,61.8,49.5,29.88,NW,324,0.0,1.0,64,0.00,,,0.00,Wunderground v.1.15,2013-09-21 23:35:00,
2013-09-21 18:36:00,61.7,49.4,29.88,NW,324,0.0,1.0,64,0.00,,,0.00,Wunderground v.1.15,2013-09-21 23:36:00,
2013-09-21 18:38:00,61.6,49.3,29.88,NW,324,0.0,1.0,64,0.00,,,0.00,Wunderground v.1.15,2013-09-21 23:38:00,
2013-09-21 18:41:00,61.3,49.4,29.88,NW,324,0.0,0.0,65,0.00,,,0.00,Wunderground v.1.15,2013-09-21 23:41:00,
2013-09-21 18:43:00,61.3,49.4,29.88,NW,324,0.0,0.0,65,0.00,,,0.00,Wunderground v.1.15,2013-09-21 23:43:00,
2013-09-21 18:44:00,61.2,49.7,29.88,NW,324,0.0,0.0,66,0.00,,,0.00,Wunderground v.1.15,2013-09-21 23:44:00,
2013-09-21 18:45:00,61.1,49.7,29.88,NW,324,0.0,0.0,66,0.00,,,0.00,Wunderground v.1.15,2013-09-21 23:45:00,
2013-09-21 18:48:00,60.8,49.8,29.88,NW,324,0.0,0.0,67,0.00,,,0.00,Wunderground v.1.15,2013-09-21 23:48:00,
2013-09-21 18:49:00,60.8,49.8,29.87,NW,324,0.0,0.0,67,0.00,,,0.00,Wunderground v.1.15,2013-09-21 23:49:00,
2013-09-21 18:50:00,60.7,49.7,29.88,NW,324,0.0,0.0,67,0.00,,,0.00,Wunderground v.1.15,2013-09-21 23:50:00,
2013-09-21 18:51:00,60.5,49.5,29.88,NW,324,0.0,0.0,67,0.00,,,0.00,Wunderground v.1.15,2013-09-21 23:51:00,
2013-09-21 18:54:00,60.3,49.7,29.87,NW,324,0.0,0.0,68,0.00,,,0.00,Wunderground v.1.15,2013-09-21 23:54:00,
2013-09-21 18:55:00,60.2,49.6,29.87,NW,324,0.0,0.0,68,0.00,,,0.00,Wunderground v.1.15,2013-09-21 23:55:00,
2013-09-21 18:56:00,60.1,49.5,29.87,NW,324,0.0,0.0,68,0.00,,,0.00,Wunderground v.1.15,2013-09-21 23:56:00,
2013-09-21 18:57:00,60.0,49.8,29.87,NW,324,0.0,0.0,69,0.00,,,0.00,Wunderground v.1.15,2013-09-21 23:57:00,
2013-09-21 18:59:00,59.8,49.6,29.88,NW,324,0.0,0.0,69,0.00,,,0.00,Wunderground v.1.15,2013-09-21 23:59:00,
2013-09-21 19:02:00,59.5,49.7,29.88,NW,324,0.0,0.0,70,0.00,,,0.00,Wunderground v.1.15,2013-09-22 00:02:00,
2013-09-21 19:04:00,59.3,49.5,29.88,NW,324,0.0,0.0,70,0.00,,,0.00,Wunderground v.1.15,2013-09-22 00:04:00,
2013-09-21 19:05:00,59.2,49.8,29.88,NW,324,0.0,0.0,71,0.00,,,0.00,Wunderground v.1.15,2013-09-22 00:05:00,
2013-09-21 19:07:00,59.0,49.6,29.88,NW,324,0.0,0.0,71,0.00,,,0.00,Wunderground v.1.15,2013-09-22 00:07:00,
2013-09-21 19:08:00,58.9,49.9,29.88,NW,324,0.0,0.0,72,0.00,,,0.00,Wunderground v.1.15,2013-09-22 00:08:00,
2013-09-21 19:09:00,58.8,49.8,29.88,NW,324,0.0,0.0,72,0.00,,,0.00,Wunderground v.1.15,2013-09-22 00:09:00,
2013-09-21 19:12:00,58.5,50.2,29.88,NW,324,0.0,0.0,74,0.00,,,0.00,Wunderground v.1.15,2013-09-22 00:12:00,
2013-09-21 19:13:00,58.4,50.1,29.88,NW,324,0.0,0.0,74,0.00,,,0.00,Wunderground v.1.15,2013-09-22 00:13:00,
2013-09-21 19:16:00,58.1,50.2,29.88,NW,324,0.0,0.0,75,0.00,,,0.00,Wunderground v.1.15,2013-09-22 00:16:00,
2013-09-21 19:17:00,58.1,50.2,29.88,NW,324,0.0,0.0,75,0.00,,,0.00,Wunderground v.1.15,2013-09-22 00:17:00,
2013-09-21 19:19:00,57.8,49.9,29.88,NW,324,0.0,0.0,75,0.00,,,0.00,Wunderground v.1.15,2013-09-22 00:19:00,
2013-09-21 19:20:00,57.7,49.8,29.88,NW,324,0.0,0.0,75,0.00,,,0.00,Wunderground v.1.15,2013-09-22 00:20:00,
2013-09-21 19:25:00,57.2,49.7,29.89,NW,324,0.0,0.0,76,0.00,,,0.00,Wunderground v.1.15,2013-09-22 00:25:00,
2013-09-21 19:26:00,57.0,49.5,29.89,NW,324,0.0,0.0,76,0.00,,,0.00,Wunderground v.1.15,2013-09-22 00:26:00,
2013-09-21 19:27:00,57.0,49.5,29.89,NW,324,0.0,0.0,76,0.00,,,0.00,Wunderground v.1.15,2013-09-22 00:27:00,
2013-09-21 19:28:00,56.8,49.3,29.89,NW,324,0.0,0.0,76,0.00,,,0.00,Wunderground v.1.15,2013-09-22 00:28:00,
2013-09-21 19:31:00,56.5,49.0,29.89,NW,324,0.0,0.0,76,0.00,,,0.00,Wunderground v.1.15,2013-09-22 00:31:00,
2013-09-21 19:32:00,56.4,49.3,29.89,NW,324,0.0,0.0,77,0.00,,,0.00,Wunderground v.1.15,2013-09-22 00:32:00,
2013-09-21 19:33:00,56.3,49.2,29.89,NW,324,0.0,0.0,77,0.00,,,0.00,Wunderground v.1.15,2013-09-22 00:33:00,
2013-09-21 19:35:00,56.1,49.0,29.89,NW,324,0.0,0.0,77,0.00,,,0.00,Wunderground v.1.15,2013-09-22 00:35:00,
2013-09-21 19:38:00,55.8,49.0,29.89,NW,324,0.0,0.0,78,0.00,,,0.00,Wunderground v.1.15,2013-09-22 00:38:00,
2013-09-21 19:39:00,55.7,48.9,29.89,NW,324,0.0,0.0,78,0.00,,,0.00,Wunderground v.1.15,2013-09-22 00:39:00,
2013-09-21 19:40:00,55.7,49.3,29.89,NW,324,0.0,0.0,79,0.00,,,0.00,Wunderground v.1.15,2013-09-22 00:40:00,
2013-09-21 19:43:00,55.5,49.4,29.89,NW,324,0.0,0.0,80,0.00,,,0.00,Wunderground v.1.15,2013-09-22 00:43:00,
2013-09-21 19:45:00,55.4,49.3,29.89,NW,324,0.0,0.0,80,0.00,,,0.00,Wunderground v.1.15,2013-09-22 00:45:00,
2013-09-21 19:46:00,55.3,49.2,29.89,NW,324,0.0,0.0,80,0.00,,,0.00,Wunderground v.1.15,2013-09-22 00:46:00,
2013-09-21 19:48:00,55.2,49.5,29.89,NW,324,0.0,0.0,81,0.00,,,0.00,Wunderground v.1.15,2013-09-22 00:48:00,
2013-09-21 19:49:00,55.1,49.4,29.89,NW,324,0.0,0.0,81,0.00,,,0.00,Wunderground v.1.15,2013-09-22 00:49:00,
2013-09-21 19:51:00,55.0,49.3,29.89,NW,324,0.0,0.0,81,0.00,,,0.00,Wunderground v.1.15,2013-09-22 00:51:00,
2013-09-21 19:52:00,54.9,49.2,29.89,NW,324,0.0,0.0,81,0.00,,,0.00,Wunderground v.1.15,2013-09-22 00:52:00,
2013-09-21 19:54:00,54.8,49.1,29.89,NW,324,0.0,0.0,81,0.00,,,0.00,Wunderground v.1.15,2013-09-22 00:54:00,
2013-09-21 19:58:00,54.5,48.8,29.90,NW,324,0.0,0.0,81,0.00,,,0.00,Wunderground v.1.15,2013-09-22 00:58:00,
2013-09-21 19:59:00,54.4,48.7,29.90,NW,324,0.0,0.0,81,0.00,,,0.00,Wunderground v.1.15,2013-09-22 00:59:00,
2013-09-21 20:00:00,54.4,49.0,29.90,NW,324,0.0,0.0,82,0.00,,,0.00,Wunderground v.1.15,2013-09-22 01:00:00,
2013-09-21 20:02:00,54.2,48.8,29.90,NW,324,0.0,0.0,82,0.00,,,0.00,Wunderground v.1.15,2013-09-22 01:02:00,
2013-09-21 20:04:00,54.1,49.1,29.90,NW,324,0.0,0.0,83,0.00,,,0.00,Wunderground v.1.15,2013-09-22 01:04:00,
2013-09-21 20:05:00,54.0,49.0,29.90,NW,324,0.0,0.0,83,0.00,,,0.00,Wunderground v.1.15,2013-09-22 01:05:00,
2013-09-21 20:07:00,53.9,48.9,29.90,NW,324,0.0,0.0,83,0.00,,,0.00,Wunderground v.1.15,2013-09-22 01:07:00,
2013-09-21 20:11:00,53.5,48.8,29.90,NW,324,0.0,0.0,84,0.00,,,0.00,Wunderground v.1.15,2013-09-22 01:11:00,
2013-09-21 20:13:00,53.5,49.1,29.90,NW,324,0.0,0.0,85,0.00,,,0.00,Wunderground v.1.15,2013-09-22 01:13:00,
2013-09-21 20:14:00,53.4,49.0,29.90,NW,324,0.0,0.0,85,0.00,,,0.00,Wunderground v.1.15,2013-09-22 01:14:00,
2013-09-21 20:15:00,53.3,48.9,29.90,NW,324,0.0,0.0,85,0.00,,,0.00,Wunderground v.1.15,2013-09-22 01:15:00,
2013-09-21 20:18:00,53.2,48.8,29.91,NW,324,0.0,0.0,85,0.00,,,0.00,Wunderground v.1.15,2013-09-22 01:18:00,
2013-09-21 20:20:00,53.1,49.0,29.90,NW,324,0.0,0.0,86,0.00,,,0.00,Wunderground v.1.15,2013-09-22 01:20:00,
2013-09-21 20:23:00,52.9,48.8,29.91,NW,324,0.0,0.0,86,0.00,,,0.00,Wunderground v.1.15,2013-09-22 01:23:00,
2013-09-21 20:26:00,52.7,48.3,29.91,NW,324,0.0,0.0,85,0.00,,,0.00,Wunderground v.1.15,2013-09-22 01:26:00,
2013-09-21 20:27:00,52.6,48.5,29.91,NW,324,0.0,0.0,86,0.00,,,0.00,Wunderground v.1.15,2013-09-22 01:27:00,
2013-09-21 20:29:00,52.5,48.4,29.91,NW,324,0.0,0.0,86,0.00,,,0.00,Wunderground v.1.15,2013-09-22 01:29:00,
2013-09-21 20:30:00,52.4,48.3,29.91,NW,324,0.0,0.0,86,0.00,,,0.00,Wunderground v.1.15,2013-09-22 01:30:00,
2013-09-21 20:33:00,52.3,48.2,29.91,NW,324,0.0,0.0,86,0.00,,,0.00,Wunderground v.1.15,2013-09-22 01:33:00,
2013-09-21 20:35:00,52.2,48.4,29.91,NW,324,0.0,0.0,87,0.00,,,0.00,Wunderground v.1.15,2013-09-22 01:35:00,
2013-09-21 20:36:00,52.2,48.4,29.91,NW,324,0.0,0.0,87,0.00,,,0.00,Wunderground v.1.15,2013-09-22 01:36:00,
2013-09-21 20:38:00,52.0,48.3,29.91,NW,324,0.0,0.0,87,0.00,,,0.00,Wunderground v.1.15,2013-09-22 01:38:00,
2013-09-21 20:39:00,52.0,48.3,29.91,NW,324,0.0,0.0,87,0.00,,,0.00,Wunderground v.1.15,2013-09-22 01:39:00,
2013-09-21 20:42:00,51.8,48.1,29.91,NW,324,0.0,0.0,87,0.00,,,0.00,Wunderground v.1.15,2013-09-22 01:42:00,
2013-09-21 20:44:00,51.7,48.0,29.91,NW,324,0.0,0.0,87,0.00,,,0.00,Wunderground v.1.15,2013-09-22 01:44:00,
2013-09-21 20:45:00,51.7,48.0,29.91,NW,324,0.0,0.0,87,0.00,,,0.00,Wunderground v.1.15,2013-09-22 01:45:00,
2013-09-21 20:47:00,51.6,48.2,29.92,NW,324,0.0,0.0,88,0.00,,,0.00,Wunderground v.1.15,2013-09-22 01:47:00,
2013-09-21 20:50:00,51.4,47.7,29.92,NW,324,0.0,0.0,87,0.00,,,0.00,Wunderground v.1.15,2013-09-22 01:50:00,
2013-09-21 20:51:00,51.3,47.6,29.92,NW,324,0.0,0.0,87,0.00,,,0.00,Wunderground v.1.15,2013-09-22 01:51:00,
2013-09-21 20:53:00,51.2,47.8,29.92,NW,324,0.0,0.0,88,0.00,,,0.00,Wunderground v.1.15,2013-09-22 01:53:00,
2013-09-21 20:56:00,51.1,47.7,29.92,NW,324,0.0,0.0,88,0.00,,,0.00,Wunderground v.1.15,2013-09-22 01:56:00,
2013-09-21 20:57:00,51.0,47.6,29.92,NW,324,0.0,0.0,88,0.00,,,0.00,Wunderground v.1.15,2013-09-22 01:57:00,
2013-09-21 20:59:00,51.0,47.9,29.92,NW,324,0.0,0.0,89,0.00,,,0.00,Wunderground v.1.15,2013-09-22 01:59:00,
2013-09-21 21:00:00,51.0,47.9,29.91,NW,324,0.0,0.0,89,0.00,,,0.00,Wunderground v.1.15,2013-09-22 02:00:00,
2013-09-21 21:03:00,50.9,47.8,29.91,NW,324,0.0,0.0,89,0.00,,,0.00,Wunderground v.1.15,2013-09-22 02:03:00,
2013-09-21 21:05:00,50.8,47.7,29.92,NW,324,0.0,0.0,89,0.00,,,0.00,Wunderground v.1.15,2013-09-22 02:05:00,
2013-09-21 21:06:00,50.8,47.7,29.92,NW,324,0.0,0.0,89,0.00,,,0.00,Wunderground v.1.15,2013-09-22 02:06:00,
2013-09-21 21:07:00,50.8,47.7,29.92,NW,324,0.0,0.0,89,0.00,,,0.00,Wunderground v.1.15,2013-09-22 02:07:00,
2013-09-21 21:08:00,50.7,47.6,29.92,NW,324,0.0,0.0,89,0.00,,,0.00,Wunderground v.1.15,2013-09-22 02:08:00,
2013-09-21 21:10:00,50.7,47.9,29.92,NW,324,0.0,0.0,90,0.00,,,0.00,Wunderground v.1.15,2013-09-22 02:10:00,
2013-09-21 21:13:00,50.6,47.8,29.92,NW,324,0.0,0.0,90,0.00,,,0.00,Wunderground v.1.15,2013-09-22 02:13:00,
2013-09-21 21:14:00,50.6,47.8,29.92,NW,324,0.0,0.0,90,0.00,,,0.00,Wunderground v.1.15,2013-09-22 02:14:00,
2013-09-21 21:15:00,50.6,47.5,29.92,NW,324,0.0,0.0,89,0.00,,,0.00,Wunderground v.1.15,2013-09-22 02:15:00,
2013-09-21 21:17:00,50.6,47.8,29.92,NW,324,0.0,0.0,90,0.00,,,0.00,Wunderground v.1.15,2013-09-22 02:17:00,
2013-09-21 21:18:00,50.5,47.7,29.92,NW,324,0.0,0.0,90,0.00,,,0.00,Wunderground v.1.15,2013-09-22 02:18:00,
2013-09-21 21:19:00,50.5,47.7,29.92,NW,324,0.0,0.0,90,0.00,,,0.00,Wunderground v.1.15,2013-09-22 02:19:00,
2013-09-21 21:23:00,50.4,47.6,29.92,NW,324,0.0,0.0,90,0.00,,,0.00,Wunderground v.1.15,2013-09-22 02:23:00,
2013-09-21 21:24:00,50.4,47.6,29.92,NW,324,0.0,0.0,90,0.00,,,0.00,Wunderground v.1.15,2013-09-22 02:24:00,
2013-09-21 21:26:00,50.4,47.6,29.92,NW,324,0.0,0.0,90,0.00,,,0.00,Wunderground v.1.15,2013-09-22 02:26:00,
2013-09-21 21:29:00,50.3,47.5,29.92,NW,324,0.0,0.0,90,0.00,,,0.00,Wunderground v.1.15,2013-09-22 02:29:00,
2013-09-21 21:31:00,50.2,47.4,29.92,NW,324,0.0,0.0,90,0.00,,,0.00,Wunderground v.1.15,2013-09-22 02:31:00,
2013-09-21 21:32:00,50.2,47.4,29.92,NW,324,0.0,0.0,90,0.00,,,0.00,Wunderground v.1.15,2013-09-22 02:32:00,
2013-09-21 21:35:00,50.0,47.2,29.92,NW,324,0.0,0.0,90,0.00,,,0.00,Wunderground v.1.15,2013-09-22 02:35:00,
2013-09-21 21:37:00,50.0,47.2,29.92,NW,324,0.0,0.0,90,0.00,,,0.00,Wunderground v.1.15,2013-09-22 02:37:00,
2013-09-21 21:38:00,50.0,47.2,29.92,NW,324,0.0,0.0,90,0.00,,,0.00,Wunderground v.1.15,2013-09-22 02:38:00,
2013-09-21 21:42:00,49.8,47.0,29.93,NW,324,0.0,0.0,90,0.00,,,0.00,Wunderground v.1.15,2013-09-22 02:42:00,
2013-09-21 21:43:00,49.8,47.0,29.92,NW,324,0.0,0.0,90,0.00,,,0.00,Wunderground v.1.15,2013-09-22 02:43:00,
2013-09-21 21:44:00,49.8,47.0,29.93,NW,324,0.0,0.0,90,0.00,,,0.00,Wunderground v.1.15,2013-09-22 02:44:00,
2013-09-21 21:45:00,49.7,46.9,29.93,NW,324,0.0,0.0,90,0.00,,,0.00,Wunderground v.1.15,2013-09-22 02:45:00,
2013-09-21 21:48:00,49.6,46.8,29.93,NW,324,0.0,0.0,90,0.00,,,0.00,Wunderground v.1.15,2013-09-22 02:48:00,
2013-09-21 21:50:00,49.6,46.8,29.92,NW,324,0.0,0.0,90,0.00,,,0.00,Wunderground v.1.15,2013-09-22 02:50:00,
2013-09-21 21:51:00,49.6,46.8,29.93,NW,324,0.0,0.0,90,0.00,,,0.00,Wunderground v.1.15,2013-09-22 02:51:00,
2013-09-21 21:54:00,49.5,47.0,29.93,NW,324,0.0,0.0,91,0.00,,,0.00,Wunderground v.1.15,2013-09-22 02:54:00,
2013-09-21 21:56:00,49.5,47.0,29.93,NW,324,0.0,0.0,91,0.00,,,0.00,Wunderground v.1.15,2013-09-22 02:56:00,
2013-09-21 21:58:00,49.5,47.0,29.93,NW,324,0.0,0.0,91,0.00,,,0.00,Wunderground v.1.15,2013-09-22 02:58:00,
2013-09-21 22:00:00,49.4,46.9,29.93,NW,324,0.0,0.0,91,0.00,,,0.00,Wunderground v.1.15,2013-09-22 03:00:00,
2013-09-21 22:02:00,49.4,46.9,29.93,NW,324,0.0,0.0,91,0.00,,,0.00,Wunderground v.1.15,2013-09-22 03:02:00,
2013-09-21 22:04:00,49.4,46.9,29.93,NW,324,0.0,0.0,91,0.00,,,0.00,Wunderground v.1.15,2013-09-22 03:04:00,
2013-09-21 22:06:00,49.4,46.9,29.93,NW,324,0.0,0.0,91,0.00,,,0.00,Wunderground v.1.15,2013-09-22 03:06:00,
2013-09-21 22:08:00,49.4,46.9,29.93,NW,324,0.0,0.0,91,0.00,,,0.00,Wunderground v.1.15,2013-09-22 03:08:00,
2013-09-21 22:10:00,49.4,46.9,29.93,NW,324,0.0,0.0,91,0.00,,,0.00,Wunderground v.1.15,2013-09-22 03:10:00,
2013-09-21 22:13:00,49.4,46.9,29.93,NW,324,0.0,0.0,91,0.00,,,0.00,Wunderground v.1.15,2013-09-22 03:13:00,
2013-09-21 22:15:00,49.4,46.9,29.93,NW,324,0.0,0.0,91,0.00,,,0.00,Wunderground v.1.15,2013-09-22 03:15:00,
2013-09-21 22:17:00,49.3,46.8,29.93,NW,324,0.0,0.0,91,0.00,,,0.00,Wunderground v.1.15,2013-09-22 03:17:00,
2013-09-21 22:21:00,49.2,46.7,29.93,NW,324,0.0,0.0,91,0.00,,,0.00,Wunderground v.1.15,2013-09-22 03:21:00,
2013-09-21 22:22:00,49.2,46.7,29.93,NW,324,0.0,0.0,91,0.00,,,0.00,Wunderground v.1.15,2013-09-22 03:22:00,
2013-09-21 22:25:00,49.0,46.5,29.93,NW,324,0.0,0.0,91,0.00,,,0.00,Wunderground v.1.15,2013-09-22 03:25:00,
2013-09-21 22:26:00,48.9,46.1,29.93,NW,324,0.0,0.0,90,0.00,,,0.00,Wunderground v.1.15,2013-09-22 03:26:00,
2013-09-21 22:31:00,48.8,46.3,29.93,NW,324,0.0,0.0,91,0.00,,,0.00,Wunderground v.1.15,2013-09-22 03:31:00,
2013-09-21 22:32:00,48.7,46.2,29.93,NW,324,0.0,0.0,91,0.00,,,0.00,Wunderground v.1.15,2013-09-22 03:32:00,
2013-09-21 22:36:00,48.6,46.1,29.94,NW,324,0.0,0.0,91,0.00,,,0.00,Wunderground v.1.15,2013-09-22 03:36:00,
2013-09-21 22:37:00,48.5,46.0,29.94,NW,324,0.0,0.0,91,0.00,,,0.00,Wunderground v.1.15,2013-09-22 03:37:00,
2013-09-21 22:38:00,48.5,46.0,29.93,NW,324,0.0,0.0,91,0.00,,,0.00,Wunderground v.1.15,2013-09-22 03:38:00,
2013-09-21 22:39:00,48.4,45.9,29.94,NW,324,0.0,0.0,91,0.00,,,0.00,Wunderground v.1.15,2013-09-22 03:39:00,
2013-09-21 22:40:00,48.4,45.9,29.94,NW,324,0.0,0.0,91,0.00,,,0.00,Wunderground v.1.15,2013-09-22 03:40:00,
2013-09-21 22:45:00,48.3,46.1,29.94,NW,324,0.0,0.0,92,0.00,,,0.00,Wunderground v.1.15,2013-09-22 03:45:00,
2013-09-21 22:46:00,48.3,46.1,29.94,NW,324,0.0,0.0,92,0.00,,,0.00,Wunderground v.1.15,2013-09-22 03:46:00,
2013-09-21 22:48:00,48.3,46.1,29.94,NW,324,0.0,0.0,92,0.00,,,0.00,Wunderground v.1.15,2013-09-22 03:48:00,
2013-09-21 22:51:00,48.3,46.1,29.94,NW,324,0.0,0.0,92,0.00,,,0.00,Wunderground v.1.15,2013-09-22 03:51:00,
2013-09-21 22:55:00,48.2,46.0,29.94,NW,324,0.0,0.0,92,0.00,,,0.00,Wunderground v.1.15,2013-09-22 03:55:00,
2013-09-21 22:56:00,48.2,46.0,29.94,NW,324,0.0,0.0,92,0.00,,,0.00,Wunderground v.1.15,2013-09-22 03:56:00,
2013-09-21 22:57:00,48.2,46.0,29.94,NW,324,0.0,0.0,92,0.00,,,0.00,Wunderground v.1.15,2013-09-22 03:57:00,
2013-09-21 22:58:00,48.2,46.0,29.94,NW,324,0.0,0.0,92,0.00,,,0.00,Wunderground v.1.15,2013-09-22 03:58:00,
2013-09-21 23:01:00,48.2,46.0,29.94,NW,324,0.0,0.0,92,0.00,,,0.00,Wunderground v.1.15,2013-09-22 04:01:00,
2013-09-21 23:03:00,48.2,46.0,29.94,NW,324,0.0,0.0,92,0.00,,,0.00,Wunderground v.1.15,2013-09-22 04:03:00,
2013-09-21 23:06:00,48.2,46.0,29.94,NW,324,0.0,0.0,92,0.00,,,0.00,Wunderground v.1.15,2013-09-22 04:06:00,
2013-09-21 23:08:00,48.1,45.9,29.94,NW,324,0.0,0.0,92,0.00,,,0.00,Wunderground v.1.15,2013-09-22 04:08:00,
2013-09-21 23:09:00,48.1,45.9,29.94,NW,324,0.0,0.0,92,0.00,,,0.00,Wunderground v.1.15,2013-09-22 04:09:00,
2013-09-21 23:12:00,48.1,45.9,29.94,NW,324,0.0,0.0,92,0.00,,,0.00,Wunderground v.1.15,2013-09-22 04:12:00,
2013-09-21 23:14:00,48.1,45.9,29.94,NW,324,0.0,0.0,92,0.00,,,0.00,Wunderground v.1.15,2013-09-22 04:14:00,
2013-09-21 23:15:00,48.1,45.9,29.94,NW,324,0.0,0.0,92,0.00,,,0.00,Wunderground v.1.15,2013-09-22 04:15:00,
2013-09-21 23:18:00,48.0,45.8,29.94,NW,324,0.0,0.0,92,0.00,,,0.00,Wunderground v.1.15,2013-09-22 04:18:00,
2013-09-21 23:22:00,47.9,45.7,29.94,NW,324,0.0,0.0,92,0.00,,,0.00,Wunderground v.1.15,2013-09-22 04:22:00,
2013-09-21 23:23:00,47.8,45.6,29.94,NW,324,0.0,0.0,92,0.00,,,0.00,Wunderground v.1.15,2013-09-22 04:23:00,
2013-09-21 23:24:00,47.8,45.6,29.94,NW,324,0.0,0.0,92,0.00,,,0.00,Wunderground v.1.15,2013-09-22 04:24:00,
2013-09-21 23:25:00,47.8,45.6,29.94,NW,324,0.0,0.0,92,0.00,,,0.00,Wunderground v.1.15,2013-09-22 04:25:00,
2013-09-21 23:28:00,47.8,45.6,29.94,NW,324,0.0,0.0,92,0.00,,,0.00,Wunderground v.1.15,2013-09-22 04:28:00,
2013-09-21 23:29:00,47.8,45.6,29.94,NW,324,0.0,0.0,92,0.00,,,0.00,Wunderground v.1.15,2013-09-22 04:29:00,
2013-09-21 23:33:00,47.8,45.6,29.94,NW,324,0.0,0.0,92,0.00,,,0.00,Wunderground v.1.15,2013-09-22 04:33:00,
2013-09-21 23:35:00,47.8,45.6,29.94,NW,324,0.0,0.0,92,0.00,,,0.00,Wunderground v.1.15,2013-09-22 04:35:00,
2013-09-21 23:36:00,47.8,45.6,29.95,NW,324,0.0,0.0,92,0.00,,,0.00,Wunderground v.1.15,2013-09-22 04:36:00,
2013-09-21 23:38:00,47.8,45.9,29.95,NW,324,0.0,0.0,93,0.00,,,0.00,Wunderground v.1.15,2013-09-22 04:38:00,
2013-09-21 23:40:00,47.8,45.9,29.95,NW,324,0.0,0.0,93,0.00,,,0.00,Wunderground v.1.15,2013-09-22 04:40:00,
2013-09-21 23:41:00,47.9,45.7,29.95,NW,324,0.0,0.0,92,0.00,,,0.00,Wunderground v.1.15,2013-09-22 04:41:00,
2013-09-21 23:42:00,47.9,45.7,29.95,NW,324,0.0,0.0,92,0.00,,,0.00,Wunderground v.1.15,2013-09-22 04:42:00,
2013-09-21 23:43:00,47.9,45.7,29.95,NW,324,0.0,0.0,92,0.00,,,0.00,Wunderground v.1.15,2013-09-22 04:43:00,
2013-09-21 23:44:00,47.9,45.7,29.95,NW,324,0.0,0.0,92,0.00,,,0.00,Wunderground v.1.15,2013-09-22 04:44:00,
2013-09-21 23:46:00,47.9,46.0,29.95,NW,324,0.0,0.0,93,0.00,,,0.00,Wunderground v.1.15,2013-09-22 04:46:00,
2013-09-21 23:49:00,47.8,45.6,29.95,NW,324,0.0,0.0,92,0.00,,,0.00,Wunderground v.1.15,2013-09-22 04:49:00,
2013-09-21 23:50:00,47.8,45.6,29.95,NW,324,0.0,0.0,92,0.00,,,0.00,Wunderground v.1.15,2013-09-22 04:50:00,
2013-09-21 23:56:00,47.6,45.4,29.95,NW,324,0.0,0.0,92,0.00,,,0.00,Wunderground v.1.15,2013-09-22 04:56:00,
2013-09-21 23:58:00,47.5,45.3,29.95,NW,324,0.0,0.0,92,0.00,,,0.00,Wunderground v.1.15,2013-09-22 04:58:00,